Time,TemperatureF,DewpointF,PressureIn,WindDirection,WindDirectionDegrees,WindSpeedMPH,WindSpeedGustMPH,Humidity,HourlyPrecipIn,Conditions,Clouds,dailyrainin,SoftwareType,DateUTC
2013-09-02 06:20:00,68.3,68.0,29.80,SW,225,3.0,7.0,99,0.24,,,0.76,VWS V14.01,2013-09-02 10:20:00,
2013-09-02 06:30:00,68.3,68.0,29.80,SW,225,3.0,7.0,99,0.24,,,0.76,VWS V14.01,2013-09-02 10:30:00,
2013-09-02 06:31:00,67.3,66.7,29.79,SW,219,1.0,2.0,98,0.34,,OVC009,0.70,VWS V14.01,2013-09-02 10:31:00,
2013-09-02 06:35:00,67.0,66.4,29.79,SW,227,2.0,3.0,98,0.37,,OVC009,0.73,VWS V14.01,2013-09-02 10:35:00,
2013-09-02 06:36:00,66.9,66.3,29.79,SW,227,1.0,3.0,98,0.38,,OVC009,0.74,VWS V14.01,2013-09-02 10:36:00,
2013-09-02 06:40:00,66.8,66.2,29.79,SW,226,1.0,1.0,98,0.41,,OVC009,0.77,VWS V14.01,2013-09-02 10:40:00,
2013-09-02 06:41:00,66.8,66.2,29.79,WSW,240,3.0,3.0,98,0.42,,OVC009,0.78,VWS V14.01,2013-09-02 10:41:00,
2013-09-02 06:43:00,66.7,66.1,29.79,SW,230,2.0,4.0,98,0.42,,OVC009,0.78,VWS V14.01,2013-09-02 10:43:00,
2013-09-02 06:45:00,66.6,66.0,29.79,SW,229,2.0,3.0,98,0.43,,OVC009,0.79,VWS V14.01,2013-09-02 10:45:00,
2013-09-02 06:46:00,66.6,66.0,29.79,SSW,196,2.0,3.0,98,0.43,,OVC009,0.79,VWS V14.01,2013-09-02 10:46:00,
2013-09-02 06:47:00,66.6,66.0,29.79,SW,217,3.0,3.0,98,0.43,,OVC009,0.79,VWS V14.01,2013-09-02 10:47:00,
2013-09-02 06:48:00,66.6,66.3,29.79,SW,232,3.0,4.0,99,0.44,,OVC009,0.80,VWS V14.01,2013-09-02 10:48:00,
2013-09-02 06:50:00,66.5,66.2,29.79,SW,225,1.0,3.0,99,0.45,,OVC009,0.81,VWS V14.01,2013-09-02 10:50:00,
2013-09-02 06:51:00,66.5,66.2,29.79,SW,222,2.0,3.0,99,0.45,,OVC009,0.81,VWS V14.01,2013-09-02 10:51:00,
2013-09-02 06:52:00,66.5,66.2,29.79,SW,225,1.0,3.0,99,0.45,,OVC009,0.81,VWS V14.01,2013-09-02 10:52:00,
2013-09-02 06:54:00,66.5,66.2,29.79,SW,224,2.0,4.0,99,0.46,,OVC009,0.82,VWS V14.01,2013-09-02 10:54:00,
2013-09-02 06:56:00,66.4,66.1,29.79,SW,218,1.0,3.0,99,0.46,,OVC009,0.82,VWS V14.01,2013-09-02 10:56:00,
2013-09-02 06:57:00,66.4,66.1,29.79,SW,235,1.0,3.0,99,0.46,,OVC009,0.82,VWS V14.01,2013-09-02 10:57:00,
2013-09-02 06:59:00,66.3,66.0,29.78,West,264,1.0,3.0,99,0.46,,OVC009,0.82,VWS V14.01,2013-09-02 10:59:00,
2013-09-02 07:01:00,66.3,65.7,29.78,SW,235,2.0,2.0,98,0.43,,,0.82,VWS V14.01,2013-09-02 11:01:00,
2013-09-02 07:02:00,66.2,65.6,29.78,SW,234,0.0,2.0,98,0.43,,,0.82,VWS V14.01,2013-09-02 11:02:00,
2013-09-02 07:05:00,66.1,65.5,29.78,SW,235,1.0,2.0,98,0.43,,,0.83,VWS V14.01,2013-09-02 11:05:00,
2013-09-02 07:06:00,66.1,65.5,29.78,SW,235,1.0,2.0,98,0.43,,,0.83,VWS V14.01,2013-09-02 11:06:00,
2013-09-02 07:08:00,66.0,65.4,29.78,SW,234,0.0,2.0,98,0.43,,,0.83,VWS V14.01,2013-09-02 11:08:00,
2013-09-02 07:10:00,65.9,65.3,29.79,SW,234,1.0,1.0,98,0.42,,,0.84,VWS V14.01,2013-09-02 11:10:00,
2013-09-02 07:11:00,65.9,65.3,29.79,SW,234,0.0,1.0,98,0.42,,,0.84,VWS V14.01,2013-09-02 11:11:00,
2013-09-02 07:13:00,65.8,65.2,29.79,SW,234,0.0,1.0,98,0.42,,,0.84,VWS V14.01,2013-09-02 11:13:00,
2013-09-02 07:14:00,65.8,65.2,29.79,SW,232,1.0,2.0,98,0.42,,,0.84,VWS V14.01,2013-09-02 11:14:00,
2013-09-02 07:15:00,65.8,65.2,29.79,SW,232,0.0,0.0,98,0.40,,,0.84,VWS V14.01,2013-09-02 11:15:00,
2013-09-02 07:16:00,65.8,65.2,29.79,SW,232,0.0,1.0,98,0.40,,,0.84,VWS V14.01,2013-09-02 11:16:00,
2013-09-02 07:17:00,65.8,65.2,29.79,SW,232,0.0,1.0,98,0.40,,,0.84,VWS V14.01,2013-09-02 11:17:00,
2013-09-02 07:19:00,65.7,65.1,29.78,SW,232,1.0,1.0,98,0.41,,,0.85,VWS V14.01,2013-09-02 11:19:00,
2013-09-02 07:20:00,65.7,65.1,29.78,SW,232,1.0,1.0,98,0.32,,,0.85,VWS V14.01,2013-09-02 11:20:00,
2013-09-02 07:21:00,65.7,65.1,29.78,SW,232,0.0,1.0,98,0.32,,,0.85,VWS V14.01,2013-09-02 11:21:00,
2013-09-02 07:22:00,65.6,65.0,29.78,SW,232,0.0,1.0,98,0.32,,,0.85,VWS V14.01,2013-09-02 11:22:00,
2013-09-02 07:24:00,65.6,65.0,29.78,SW,232,1.0,2.0,98,0.33,,,0.86,VWS V14.01,2013-09-02 11:24:00,
2013-09-02 07:25:00,65.6,65.0,29.78,SW,232,1.0,1.0,98,0.26,,,0.86,VWS V14.01,2013-09-02 11:25:00,
2013-09-02 07:26:00,65.6,65.0,29.78,SW,225,1.0,2.0,98,0.26,,,0.86,VWS V14.01,2013-09-02 11:26:00,
2013-09-02 07:27:00,65.5,64.9,29.78,SW,223,1.0,2.0,98,0.26,,,0.86,VWS V14.01,2013-09-02 11:27:00,
2013-09-02 07:30:00,65.4,64.8,29.78,SW,222,1.0,1.0,98,0.18,,,0.86,VWS V14.01,2013-09-02 11:30:00,
2013-09-02 07:31:00,65.4,64.8,29.79,SW,222,0.0,1.0,98,0.19,,,0.87,VWS V14.01,2013-09-02 11:31:00,
2013-09-02 07:32:00,65.4,64.8,29.79,SW,222,1.0,1.0,98,0.19,,,0.87,VWS V14.01,2013-09-02 11:32:00,
2013-09-02 07:35:00,65.3,65.0,29.78,SW,222,0.0,1.0,99,0.15,,,0.87,VWS V14.01,2013-09-02 11:35:00,
2013-09-02 07:36:00,65.3,65.0,29.78,SW,218,0.0,1.0,99,0.15,,,0.87,VWS V14.01,2013-09-02 11:36:00,
2013-09-02 07:37:00,65.4,65.1,29.78,SW,216,0.0,1.0,99,0.15,,,0.87,VWS V14.01,2013-09-02 11:37:00,
2013-09-02 07:38:00,65.4,65.1,29.78,SW,215,1.0,1.0,99,0.15,,,0.87,VWS V14.01,2013-09-02 11:38:00,
2013-09-02 07:40:00,65.4,65.1,29.78,SE,146,2.0,2.0,99,0.10,,,0.87,VWS V14.01,2013-09-02 11:40:00,
2013-09-02 07:41:00,65.4,65.1,29.79,SW,215,3.0,3.0,99,0.10,,,0.87,VWS V14.01,2013-09-02 11:41:00,
2013-09-02 07:42:00,65.4,65.1,29.78,SSW,202,0.0,3.0,99,0.10,,,0.87,VWS V14.01,2013-09-02 11:42:00,
2013-09-02 07:43:00,65.4,65.1,29.78,SSW,201,1.0,3.0,99,0.10,,,0.87,VWS V14.01,2013-09-02 11:43:00,
2013-09-02 07:45:00,65.4,65.1,29.78,SW,229,2.0,2.0,99,0.08,,,0.87,VWS V14.01,2013-09-02 11:45:00,
2013-09-02 07:46:00,65.4,65.1,29.78,SW,231,1.0,2.0,99,0.08,,,0.87,VWS V14.01,2013-09-02 11:46:00,
2013-09-02 07:47:00,65.4,65.1,29.78,SW,231,0.0,2.0,99,0.08,,,0.87,VWS V14.01,2013-09-02 11:47:00,
2013-09-02 07:48:00,65.4,65.1,29.78,SW,231,0.0,2.0,99,0.08,,,0.87,VWS V14.01,2013-09-02 11:48:00,
2013-09-02 07:50:00,65.4,65.1,29.78,SW,231,0.0,1.0,99,0.08,,,0.88,VWS V14.01,2013-09-02 11:50:00,
2013-09-02 07:52:00,65.4,65.1,29.78,SW,231,0.0,1.0,99,0.08,,,0.88,VWS V14.01,2013-09-02 11:52:00,
2013-09-02 07:53:00,65.5,65.2,29.78,SW,231,0.0,1.0,99,0.08,,,0.88,VWS V14.01,2013-09-02 11:53:00,
2013-09-02 07:55:00,65.5,65.2,29.78,SW,231,0.0,1.0,99,0.06,,,0.88,VWS V14.01,2013-09-02 11:55:00,
2013-09-02 07:57:00,65.5,65.2,29.78,SW,231,1.0,1.0,99,0.06,,,0.88,VWS V14.01,2013-09-02 11:57:00,
2013-09-02 07:58:00,65.5,65.2,29.78,South,189,0.0,1.0,99,0.06,,,0.88,VWS V14.01,2013-09-02 11:58:00,
2013-09-02 08:01:00,65.6,65.3,29.78,South,182,1.0,2.0,99,0.06,,-RA,0.88,VWS V14.01,2013-09-02 12:01:00,
2013-09-02 08:02:00,65.6,65.3,29.78,SSW,192,1.0,2.0,99,0.06,,-RA,0.88,VWS V14.01,2013-09-02 12:02:00,
2013-09-02 08:03:00,65.6,65.3,29.78,SSW,193,1.0,2.0,99,0.06,,-RA,0.88,VWS V14.01,2013-09-02 12:03:00,
2013-09-02 08:07:00,65.8,65.5,29.78,South,183,0.0,1.0,99,0.05,,-RA,0.88,VWS V14.01,2013-09-02 12:07:00,
2013-09-02 08:08:00,65.8,65.5,29.78,South,183,0.0,1.0,99,0.05,,-RA,0.88,VWS V14.01,2013-09-02 12:08:00,
2013-09-02 08:10:00,65.8,65.5,29.78,South,183,0.0,0.0,99,0.05,,-RA,0.88,VWS V14.01,2013-09-02 12:10:00,
2013-09-02 08:12:00,65.9,65.6,29.78,South,186,0.0,1.0,99,0.05,,-RA,0.88,VWS V14.01,2013-09-02 12:12:00,
2013-09-02 08:13:00,66.0,65.7,29.78,South,188,0.0,1.0,99,0.05,,-RA,0.88,VWS V14.01,2013-09-02 12:13:00,
2013-09-02 08:14:00,66.1,65.8,29.78,SSW,196,2.0,2.0,99,0.05,,-RA,0.88,VWS V14.01,2013-09-02 12:14:00,
2013-09-02 08:15:00,66.1,65.8,29.78,SSW,202,0.0,1.0,99,0.04,,-RA,0.88,VWS V14.01,2013-09-02 12:15:00,
2013-09-02 08:17:00,66.2,65.9,29.78,South,186,2.0,4.0,99,0.04,,-RA,0.88,VWS V14.01,2013-09-02 12:17:00,
2013-09-02 08:18:00,66.3,66.0,29.78,SSW,195,1.0,4.0,99,0.04,,-RA,0.88,VWS V14.01,2013-09-02 12:18:00,
2013-09-02 08:19:00,66.3,66.0,29.78,SSW,204,0.0,4.0,99,0.04,,-RA,0.88,VWS V14.01,2013-09-02 12:19:00,
2013-09-02 08:20:00,66.3,66.0,29.78,SW,219,2.0,3.0,99,0.03,,-RA,0.88,VWS V14.01,2013-09-02 12:20:00,
2013-09-02 08:22:00,66.4,66.1,29.78,SW,223,1.0,3.0,99,0.03,,-RA,0.88,VWS V14.01,2013-09-02 12:22:00,
2013-09-02 08:23:00,66.4,66.1,29.78,SW,223,2.0,3.0,99,0.03,,-RA,0.88,VWS V14.01,2013-09-02 12:23:00,
2013-09-02 08:24:00,66.5,66.2,29.78,SW,229,1.0,3.0,99,0.03,,-RA,0.88,VWS V14.01,2013-09-02 12:24:00,
2013-09-02 08:25:00,66.5,66.2,29.78,SW,228,2.0,2.0,99,0.02,,-RA,0.88,VWS V14.01,2013-09-02 12:25:00,
2013-09-02 08:27:00,66.6,66.3,29.78,SW,228,2.0,2.0,99,0.02,,-RA,0.88,VWS V14.01,2013-09-02 12:27:00,
2013-09-02 08:28:00,66.7,66.4,29.78,WSW,250,2.0,2.0,99,0.02,,-RA,0.88,VWS V14.01,2013-09-02 12:28:00,
2013-09-02 08:29:00,66.7,66.4,29.78,WSW,242,2.0,2.0,99,0.02,,-RA,0.88,VWS V14.01,2013-09-02 12:29:00,
2013-09-02 08:30:00,66.7,66.4,29.79,SW,236,1.0,1.0,99,0.02,,-RA,0.88,VWS V14.01,2013-09-02 12:30:00,
2013-09-02 08:32:00,66.8,66.5,29.79,SW,236,1.0,2.0,99,0.02,,-RA,0.88,VWS V14.01,2013-09-02 12:32:00,
2013-09-02 08:34:00,66.8,66.5,29.79,SW,236,1.0,2.0,99,0.02,,-RA,0.88,VWS V14.01,2013-09-02 12:34:00,
2013-09-02 08:36:00,66.9,66.6,29.79,SW,236,0.0,2.0,99,0.01,,-RA,0.88,VWS V14.01,2013-09-02 12:36:00,
2013-09-02 08:37:00,66.9,66.6,29.79,SW,236,1.0,2.0,99,0.01,,-RA,0.88,VWS V14.01,2013-09-02 12:37:00,
2013-09-02 08:39:00,66.9,66.6,29.79,SW,236,0.0,2.0,99,0.01,,-RA,0.88,VWS V14.01,2013-09-02 12:39:00,
2013-09-02 08:41:00,67.0,66.7,29.78,SW,236,0.0,1.0,99,0.01,,-RA,0.88,VWS V14.01,2013-09-02 12:41:00,
2013-09-02 08:42:00,67.0,66.7,29.78,SW,236,0.0,1.0,99,0.01,,-RA,0.88,VWS V14.01,2013-09-02 12:42:00,
2013-09-02 08:44:00,67.1,66.8,29.78,WSW,250,1.0,2.0,99,0.01,,-RA,0.88,VWS V14.01,2013-09-02 12:44:00,
2013-09-02 08:45:00,67.1,66.8,29.79,West,270,1.0,1.0,99,0.01,,-RA,0.88,VWS V14.01,2013-09-02 12:45:00,
2013-09-02 08:47:00,67.1,66.8,29.79,WNW,288,1.0,2.0,99,0.01,,-RA,0.88,VWS V14.01,2013-09-02 12:47:00,
2013-09-02 08:49:00,67.1,66.8,29.79,WNW,288,1.0,2.0,99,0.01,,-RA,0.88,VWS V14.01,2013-09-02 12:49:00,
2013-09-02 08:50:00,67.2,66.9,29.79,WNW,288,1.0,1.0,99,0.01,,-RA,0.88,VWS V14.01,2013-09-02 12:50:00,
2013-09-02 08:52:00,67.2,66.9,29.79,West,280,1.0,2.0,99,0.01,,-RA,0.88,VWS V14.01,2013-09-02 12:52:00,
2013-09-02 08:53:00,67.2,66.9,29.79,West,271,1.0,2.0,99,0.01,,-RA,0.88,VWS V14.01,2013-09-02 12:53:00,
2013-09-02 08:54:00,67.2,66.9,29.79,West,271,1.0,2.0,99,0.01,,-RA,0.88,VWS V14.01,2013-09-02 12:54:00,
2013-09-02 08:55:00,67.2,66.9,29.79,West,271,0.0,1.0,99,0.00,,-RA,0.88,VWS V14.01,2013-09-02 12:55:00,
2013-09-02 08:57:00,67.3,67.0,29.79,West,271,0.0,1.0,99,0.00,,-RA,0.88,VWS V14.01,2013-09-02 12:57:00,
2013-09-02 08:58:00,67.3,67.0,29.79,West,271,0.0,1.0,99,0.00,,-RA,0.88,VWS V14.01,2013-09-02 12:58:00,
2013-09-02 08:59:00,67.3,67.0,29.79,West,271,1.0,1.0,99,0.00,,-RA,0.88,VWS V14.01,2013-09-02 12:59:00,
2013-09-02 09:01:00,67.4,67.1,29.79,West,271,1.0,1.0,99,0.00,,BKN070,0.88,VWS V14.01,2013-09-02 13:01:00,
2013-09-02 09:02:00,67.4,67.1,29.79,West,271,1.0,1.0,99,0.00,,BKN070,0.88,VWS V14.01,2013-09-02 13:02:00,
2013-09-02 09:03:00,67.4,67.1,29.79,West,271,0.0,1.0,99,0.00,,BKN070,0.88,VWS V14.01,2013-09-02 13:03:00,
2013-09-02 09:04:00,67.5,67.2,29.79,West,271,0.0,1.0,99,0.00,,BKN070,0.88,VWS V14.01,2013-09-02 13:04:00,
2013-09-02 09:06:00,67.5,67.2,29.78,West,271,0.0,1.0,99,0.00,,BKN070,0.88,VWS V14.01,2013-09-02 13:06:00,
2013-09-02 09:07:00,67.6,67.3,29.78,West,271,0.0,1.0,99,0.00,,BKN070,0.88,VWS V14.01,2013-09-02 13:07:00,
2013-09-02 09:08:00,67.6,67.3,29.78,West,271,0.0,1.0,99,0.00,,BKN070,0.88,VWS V14.01,2013-09-02 13:08:00,
2013-09-02 09:09:00,67.6,67.3,29.78,West,271,1.0,1.0,99,0.00,,BKN070,0.88,VWS V14.01,2013-09-02 13:09:00,
2013-09-02 09:10:00,67.6,67.3,29.78,West,271,0.0,1.0,99,0.00,,BKN070,0.88,VWS V14.01,2013-09-02 13:10:00,
2013-09-02 09:11:00,67.7,67.4,29.78,West,271,1.0,1.0,99,0.00,,BKN070,0.88,VWS V14.01,2013-09-02 13:11:00,
2013-09-02 09:13:00,67.7,67.4,29.79,West,271,0.0,1.0,99,0.00,,BKN070,0.88,VWS V14.01,2013-09-02 13:13:00,
2013-09-02 09:14:00,67.8,67.5,29.79,West,271,0.0,1.0,99,0.00,,BKN070,0.88,VWS V14.01,2013-09-02 13:14:00,
2013-09-02 09:15:00,67.8,67.5,29.79,West,271,1.0,1.0,99,0.00,,BKN070,0.88,VWS V14.01,2013-09-02 13:15:00,
2013-09-02 09:16:00,67.8,67.5,29.79,West,271,0.0,1.0,99,0.00,,BKN070,0.88,VWS V14.01,2013-09-02 13:16:00,
2013-09-02 09:18:00,67.8,67.5,29.79,West,276,1.0,1.0,99,0.00,,BKN070,0.88,VWS V14.01,2013-09-02 13:18:00,
2013-09-02 09:19:00,67.9,67.6,29.79,West,279,0.0,1.0,99,0.00,,BKN070,0.88,VWS V14.01,2013-09-02 13:19:00,
2013-09-02 09:20:00,67.9,67.6,29.79,West,279,1.0,1.0,99,0.00,,BKN070,0.88,VWS V14.01,2013-09-02 13:20:00,
2013-09-02 09:21:00,67.9,67.6,29.79,West,279,0.0,1.0,99,0.00,,BKN070,0.88,VWS V14.01,2013-09-02 13:21:00,
2013-09-02 09:22:00,67.9,67.6,29.79,West,279,0.0,1.0,99,0.00,,BKN070,0.88,VWS V14.01,2013-09-02 13:22:00,
2013-09-02 09:23:00,67.9,67.6,29.79,West,279,1.0,1.0,99,0.00,,BKN070,0.88,VWS V14.01,2013-09-02 13:23:00,
2013-09-02 09:25:00,67.9,67.6,29.79,East,84,1.0,1.0,99,0.00,,BKN070,0.88,VWS V14.01,2013-09-02 13:25:00,
2013-09-02 09:26:00,68.0,67.7,29.79,East,84,0.0,1.0,99,0.00,,BKN070,0.88,VWS V14.01,2013-09-02 13:26:00,
2013-09-02 09:27:00,68.0,67.7,29.79,East,84,1.0,1.0,99,0.00,,BKN070,0.88,VWS V14.01,2013-09-02 13:27:00,
2013-09-02 09:28:00,68.0,67.7,29.79,East,82,1.0,1.0,99,0.00,,BKN070,0.88,VWS V14.01,2013-09-02 13:28:00,
2013-09-02 09:30:00,68.1,67.8,29.79,NNE,24,1.0,2.0,99,0.00,,OVC055,0.88,VWS V14.01,2013-09-02 13:30:00,
2013-09-02 09:31:00,68.1,67.8,29.79,North,9,1.0,2.0,99,0.00,,OVC055,0.88,VWS V14.01,2013-09-02 13:31:00,
2013-09-02 09:33:00,68.1,67.8,29.79,North,11,1.0,2.0,99,0.00,,OVC055,0.88,VWS V14.01,2013-09-02 13:33:00,
2013-09-02 09:35:00,68.1,67.8,29.79,NE,37,0.0,0.0,99,0.00,,OVC055,0.88,VWS V14.01,2013-09-02 13:35:00,
2013-09-02 09:36:00,68.1,67.8,29.79,NE,46,0.0,1.0,99,0.00,,OVC055,0.88,VWS V14.01,2013-09-02 13:36:00,
2013-09-02 09:38:00,68.1,67.8,29.79,NE,45,0.0,1.0,99,0.00,,OVC055,0.88,VWS V14.01,2013-09-02 13:38:00,
2013-09-02 09:40:00,68.0,67.7,29.79,North,9,0.0,1.0,99,0.00,,OVC055,0.88,VWS V14.01,2013-09-02 13:40:00,
2013-09-02 09:41:00,68.1,67.8,29.79,NNE,19,1.0,1.0,99,0.00,,OVC055,0.88,VWS V14.01,2013-09-02 13:41:00,
2013-09-02 09:43:00,68.0,67.7,29.80,NNE,21,0.0,1.0,99,0.02,,OVC055,0.90,VWS V14.01,2013-09-02 13:43:00,
2013-09-02 09:45:00,68.0,67.7,29.80,NE,53,1.0,1.0,99,0.04,,OVC055,0.92,VWS V14.01,2013-09-02 13:45:00,
2013-09-02 09:46:00,68.0,67.7,29.79,East,90,1.0,2.0,99,0.04,,OVC055,0.92,VWS V14.01,2013-09-02 13:46:00,
2013-09-02 09:48:00,68.0,67.7,29.79,ESE,114,1.0,2.0,99,0.05,,OVC055,0.93,VWS V14.01,2013-09-02 13:48:00,
2013-09-02 09:49:00,68.1,67.8,29.79,ESE,114,1.0,2.0,99,0.05,,OVC055,0.93,VWS V14.01,2013-09-02 13:49:00,
2013-09-02 09:50:00,68.1,67.8,29.79,ESE,114,0.0,0.0,99,0.05,,OVC055,0.93,VWS V14.01,2013-09-02 13:50:00,
2013-09-02 09:51:00,68.2,67.9,29.79,ESE,114,1.0,1.0,99,0.05,,OVC055,0.93,VWS V14.01,2013-09-02 13:51:00,
2013-09-02 09:52:00,68.2,67.9,29.80,ESE,114,0.0,1.0,99,0.05,,OVC055,0.93,VWS V14.01,2013-09-02 13:52:00,
2013-09-02 09:53:00,68.3,68.0,29.80,ESE,114,0.0,1.0,99,0.06,,OVC055,0.94,VWS V14.01,2013-09-02 13:53:00,
2013-09-02 09:54:00,68.3,68.0,29.79,ESE,114,0.0,1.0,99,0.06,,OVC055,0.94,VWS V14.01,2013-09-02 13:54:00,
2013-09-02 09:55:00,68.3,68.0,29.79,ESE,114,0.0,0.0,99,0.06,,OVC055,0.94,VWS V14.01,2013-09-02 13:55:00,
2013-09-02 09:56:00,68.3,68.0,29.79,ESE,114,0.0,0.0,99,0.06,,OVC055,0.94,VWS V14.01,2013-09-02 13:56:00,
2013-09-02 09:57:00,68.3,68.0,29.79,ESE,114,0.0,1.0,99,0.07,,OVC055,0.95,VWS V14.01,2013-09-02 13:57:00,
2013-09-02 09:58:00,68.3,68.0,29.79,ESE,114,0.0,1.0,99,0.07,,OVC055,0.95,VWS V14.01,2013-09-02 13:58:00,
2013-09-02 10:00:00,68.3,68.0,29.79,ESE,113,0.0,0.0,99,0.08,,-RA,0.96,VWS V14.01,2013-09-02 14:00:00,
2013-09-02 10:01:00,68.4,68.1,29.79,ESE,113,0.0,1.0,99,0.08,,-RA,0.96,VWS V14.01,2013-09-02 14:01:00,
2013-09-02 10:02:00,68.4,68.1,29.79,ESE,113,1.0,1.0,99,0.09,,-RA,0.97,VWS V14.01,2013-09-02 14:02:00,
2013-09-02 10:03:00,68.4,68.1,29.79,ESE,113,1.0,2.0,99,0.10,,-RA,0.98,VWS V14.01,2013-09-02 14:03:00,
2013-09-02 10:04:00,68.4,68.1,29.79,ESE,113,1.0,2.0,99,0.10,,-RA,0.98,VWS V14.01,2013-09-02 14:04:00,
2013-09-02 10:05:00,68.4,68.1,29.79,ESE,120,0.0,2.0,99,0.10,,-RA,0.98,VWS V14.01,2013-09-02 14:05:00,
2013-09-02 10:06:00,68.4,68.1,29.79,ESE,120,0.0,2.0,99,0.10,,-RA,0.98,VWS V14.01,2013-09-02 14:06:00,
2013-09-02 10:07:00,68.4,68.1,29.79,ESE,119,1.0,2.0,99,0.13,,-RA,1.01,VWS V14.01,2013-09-02 14:07:00,
2013-09-02 10:08:00,68.4,68.1,29.79,ESE,119,0.0,2.0,99,0.13,,-RA,1.01,VWS V14.01,2013-09-02 14:08:00,
2013-09-02 10:09:00,68.4,68.1,29.79,East,85,1.0,2.0,99,0.13,,-RA,1.01,VWS V14.01,2013-09-02 14:09:00,
2013-09-02 10:10:00,68.4,68.1,29.79,ENE,59,1.0,1.0,99,0.13,,-RA,1.01,VWS V14.01,2013-09-02 14:10:00,
2013-09-02 10:11:00,68.5,68.2,29.80,NE,47,1.0,2.0,99,0.13,,-RA,1.01,VWS V14.01,2013-09-02 14:11:00,
2013-09-02 10:13:00,68.5,68.2,29.80,NE,41,0.0,2.0,99,0.14,,-RA,1.02,VWS V14.01,2013-09-02 14:13:00,
2013-09-02 10:14:00,68.5,68.2,29.80,NNE,28,0.0,2.0,99,0.14,,-RA,1.02,VWS V14.01,2013-09-02 14:14:00,
2013-09-02 10:15:00,68.5,68.2,29.80,NE,53,0.0,1.0,99,0.14,,-RA,1.02,VWS V14.01,2013-09-02 14:15:00,
2013-09-02 10:16:00,68.5,68.2,29.79,NE,53,1.0,1.0,99,0.14,,-RA,1.02,VWS V14.01,2013-09-02 14:16:00,
2013-09-02 10:17:00,68.5,68.2,29.79,ENE,59,0.0,1.0,99,0.14,,-RA,1.02,VWS V14.01,2013-09-02 14:17:00,
2013-09-02 10:18:00,68.5,68.2,29.79,ENE,59,0.0,1.0,99,0.14,,-RA,1.02,VWS V14.01,2013-09-02 14:18:00,
2013-09-02 10:19:00,68.5,68.2,29.79,ENE,59,0.0,1.0,99,0.14,,-RA,1.02,VWS V14.01,2013-09-02 14:19:00,
2013-09-02 10:20:00,68.5,68.2,29.79,ENE,66,0.0,1.0,99,0.14,,-RA,1.02,VWS V14.01,2013-09-02 14:20:00,
2013-09-02 10:22:00,68.6,68.3,29.79,ENE,66,0.0,1.0,99,0.14,,-RA,1.02,VWS V14.01,2013-09-02 14:22:00,
2013-09-02 10:23:00,68.6,68.3,29.79,ENE,69,0.0,1.0,99,0.14,,-RA,1.02,VWS V14.01,2013-09-02 14:23:00,
2013-09-02 10:24:00,68.6,68.3,29.79,ENE,69,0.0,1.0,99,0.14,,-RA,1.02,VWS V14.01,2013-09-02 14:24:00,
2013-09-02 10:25:00,68.7,68.4,29.79,ENE,69,0.0,0.0,99,0.14,,-RA,1.02,VWS V14.01,2013-09-02 14:25:00,
2013-09-02 10:27:00,68.7,68.4,29.79,ENE,69,0.0,0.0,99,0.14,,-RA,1.02,VWS V14.01,2013-09-02 14:27:00,
2013-09-02 10:28:00,68.7,68.4,29.80,ENE,69,1.0,1.0,99,0.14,,-RA,1.02,VWS V14.01,2013-09-02 14:28:00,
2013-09-02 10:29:00,68.7,68.4,29.79,ENE,69,1.0,2.0,99,0.14,,-RA,1.02,VWS V14.01,2013-09-02 14:29:00,
2013-09-02 10:30:00,68.7,68.4,29.79,East,85,1.0,2.0,99,0.14,,-RA,1.02,VWS V14.01,2013-09-02 14:30:00,
2013-09-02 10:32:00,68.7,68.4,29.79,East,85,1.0,2.0,99,0.14,,-RA,1.02,VWS V14.01,2013-09-02 14:32:00,
2013-09-02 10:33:00,68.7,68.4,29.79,East,85,1.0,2.0,99,0.14,,-RA,1.02,VWS V14.01,2013-09-02 14:33:00,
2013-09-02 10:34:00,68.7,68.4,29.79,East,81,0.0,2.0,99,0.14,,-RA,1.02,VWS V14.01,2013-09-02 14:34:00,
2013-09-02 10:35:00,68.7,68.4,29.79,ENE,62,1.0,1.0,99,0.14,,-RA,1.02,VWS V14.01,2013-09-02 14:35:00,
2013-09-02 10:38:00,68.7,68.4,29.79,NE,35,1.0,2.0,99,0.14,,-RA,1.02,VWS V14.01,2013-09-02 14:38:00,
2013-09-02 10:39:00,68.7,68.4,29.79,NE,35,0.0,2.0,99,0.14,,-RA,1.02,VWS V14.01,2013-09-02 14:39:00,
2013-09-02 10:40:00,68.7,68.4,29.79,NE,35,2.0,2.0,99,0.14,,-RA,1.02,VWS V14.01,2013-09-02 14:40:00,
2013-09-02 10:41:00,68.8,68.5,29.79,NE,35,2.0,2.0,99,0.14,,-RA,1.02,VWS V14.01,2013-09-02 14:41:00,
2013-09-02 10:43:00,68.8,68.5,29.79,NE,56,1.0,2.0,99,0.14,,-RA,1.02,VWS V14.01,2013-09-02 14:43:00,
2013-09-02 10:44:00,68.8,68.5,29.79,NE,56,0.0,2.0,99,0.14,,-RA,1.02,VWS V14.01,2013-09-02 14:44:00,
2013-09-02 10:45:00,68.9,68.6,29.79,NE,56,0.0,0.0,99,0.10,,-RA,1.02,VWS V14.01,2013-09-02 14:45:00,
2013-09-02 10:46:00,68.9,68.6,29.79,NE,56,1.0,1.0,99,0.10,,-RA,1.02,VWS V14.01,2013-09-02 14:46:00,
2013-09-02 10:48:00,69.0,68.7,29.79,NNE,22,0.0,2.0,99,0.10,,-RA,1.02,VWS V14.01,2013-09-02 14:48:00,
2013-09-02 10:49:00,69.0,68.7,29.79,NNE,22,0.0,2.0,99,0.10,,-RA,1.02,VWS V14.01,2013-09-02 14:49:00,
2013-09-02 10:50:00,69.0,68.7,29.79,ENE,63,1.0,1.0,99,0.09,,-RA,1.02,VWS V14.01,2013-09-02 14:50:00,
2013-09-02 10:51:00,69.0,68.7,29.79,ENE,63,1.0,1.0,99,0.09,,-RA,1.02,VWS V14.01,2013-09-02 14:51:00,
2013-09-02 10:52:00,69.1,68.8,29.79,ENE,63,1.0,1.0,99,0.09,,-RA,1.02,VWS V14.01,2013-09-02 14:52:00,
2013-09-02 10:53:00,69.1,68.8,29.79,East,96,2.0,3.0,99,0.09,,-RA,1.02,VWS V14.01,2013-09-02 14:53:00,
2013-09-02 10:54:00,69.1,68.8,29.79,East,96,0.0,3.0,99,0.09,,-RA,1.02,VWS V14.01,2013-09-02 14:54:00,
2013-09-02 10:55:00,69.2,68.9,29.79,East,96,1.0,1.0,99,0.08,,-RA,1.02,VWS V14.01,2013-09-02 14:55:00,
2013-09-02 10:56:00,69.2,68.9,29.79,East,94,1.0,2.0,99,0.08,,-RA,1.02,VWS V14.01,2013-09-02 14:56:00,
2013-09-02 10:57:00,69.2,68.9,29.78,East,94,1.0,2.0,99,0.08,,-RA,1.02,VWS V14.01,2013-09-02 14:57:00,
2013-09-02 10:59:00,69.2,68.9,29.78,East,90,0.0,2.0,99,0.08,,-RA,1.02,VWS V14.01,2013-09-02 14:59:00,
2013-09-02 11:00:00,69.3,69.0,29.78,SE,124,2.0,2.0,99,0.06,,-RA,1.02,VWS V14.01,2013-09-02 15:00:00,
2013-09-02 11:01:00,69.3,69.0,29.78,SE,124,1.0,2.0,99,0.06,,-RA,1.02,VWS V14.01,2013-09-02 15:01:00,
2013-09-02 11:03:00,69.4,69.1,29.78,SE,126,2.0,2.0,99,0.06,,-RA,1.02,VWS V14.01,2013-09-02 15:03:00,
2013-09-02 11:04:00,69.4,69.1,29.78,ESE,122,1.0,2.0,99,0.06,,-RA,1.02,VWS V14.01,2013-09-02 15:04:00,
2013-09-02 11:06:00,69.5,69.2,29.78,East,94,2.0,2.0,99,0.04,,-RA,1.02,VWS V14.01,2013-09-02 15:06:00,
2013-09-02 11:09:00,69.5,69.2,29.78,NE,40,2.0,3.0,99,0.04,,-RA,1.02,VWS V14.01,2013-09-02 15:09:00,
2013-09-02 11:11:00,69.6,69.3,29.77,ENE,75,1.0,3.0,99,0.01,,-RA,1.02,VWS V14.01,2013-09-02 15:11:00,
2013-09-02 11:12:00,69.6,69.3,29.77,ENE,78,2.0,3.0,99,0.01,,-RA,1.02,VWS V14.01,2013-09-02 15:12:00,
2013-09-02 11:14:00,69.7,69.4,29.77,NNE,24,0.0,3.0,99,0.01,,-RA,1.02,VWS V14.01,2013-09-02 15:14:00,
2013-09-02 11:17:00,69.9,69.6,29.77,ESE,115,1.0,2.0,99,0.00,,-RA,1.02,VWS V14.01,2013-09-02 15:17:00,
2013-09-02 11:19:00,70.1,69.8,29.77,South,182,1.0,3.0,99,0.00,,-RA,1.02,VWS V14.01,2013-09-02 15:19:00,
2013-09-02 11:20:00,70.2,69.9,29.77,South,169,2.0,2.0,99,0.00,,-RA,1.02,VWS V14.01,2013-09-02 15:20:00,
2013-09-02 11:22:00,70.3,70.3,29.77,SSE,165,1.0,2.0,100,0.00,,-RA,1.02,VWS V14.01,2013-09-02 15:22:00,
2013-09-02 11:23:00,70.4,70.4,29.77,South,189,1.0,3.0,100,0.00,,-RA,1.02,VWS V14.01,2013-09-02 15:23:00,
2013-09-02 11:24:00,70.4,70.4,29.77,SSW,194,1.0,3.0,100,0.00,,-RA,1.02,VWS V14.01,2013-09-02 15:24:00,
2013-09-02 11:25:00,70.5,70.5,29.77,SW,222,1.0,3.0,100,0.00,,-RA,1.02,VWS V14.01,2013-09-02 15:25:00,
2013-09-02 11:27:00,70.6,70.6,29.77,West,264,0.0,3.0,100,0.00,,-RA,1.02,VWS V14.01,2013-09-02 15:27:00,
2013-09-02 11:28:00,70.7,70.4,29.77,WSW,240,1.0,3.0,99,0.00,,-RA,1.02,VWS V14.01,2013-09-02 15:28:00,
2013-09-02 11:29:00,70.7,70.4,29.77,WSW,240,1.0,3.0,99,0.00,,-RA,1.02,VWS V14.01,2013-09-02 15:29:00,
2013-09-02 11:31:00,70.8,70.5,29.77,South,186,1.0,1.0,99,0.00,,-RA,1.02,VWS V14.01,2013-09-02 15:31:00,
2013-09-02 11:32:00,70.9,70.6,29.77,South,186,1.0,2.0,99,0.00,,-RA,1.02,VWS V14.01,2013-09-02 15:32:00,
2013-09-02 11:34:00,70.9,70.6,29.77,SSW,192,2.0,2.0,99,0.00,,-RA,1.02,VWS V14.01,2013-09-02 15:34:00,
2013-09-02 11:35:00,70.8,70.5,29.77,SSW,192,1.0,1.0,99,0.00,,-RA,1.02,VWS V14.01,2013-09-02 15:35:00,
2013-09-02 11:36:00,70.8,70.5,29.77,SSW,192,3.0,3.0,99,0.00,,-RA,1.02,VWS V14.01,2013-09-02 15:36:00,
2013-09-02 11:37:00,70.8,70.5,29.77,SE,140,0.0,4.0,99,0.00,,-RA,1.02,VWS V14.01,2013-09-02 15:37:00,
2013-09-02 11:39:00,70.7,70.4,29.77,SW,219,1.0,4.0,99,0.00,,-RA,1.02,VWS V14.01,2013-09-02 15:39:00,
2013-09-02 11:40:00,70.7,70.4,29.77,SW,219,0.0,1.0,99,0.00,,-RA,1.02,VWS V14.01,2013-09-02 15:40:00,
2013-09-02 11:42:00,70.7,70.4,29.77,SW,215,1.0,2.0,99,0.00,,-RA,1.02,VWS V14.01,2013-09-02 15:42:00,
2013-09-02 11:44:00,70.7,70.4,29.77,SW,215,0.0,2.0,99,0.00,,-RA,1.02,VWS V14.01,2013-09-02 15:44:00,
2013-09-02 11:45:00,70.6,70.3,29.77,SW,215,0.0,0.0,99,0.00,,-RA,1.02,VWS V14.01,2013-09-02 15:45:00,
2013-09-02 11:47:00,70.6,70.3,29.77,South,176,2.0,3.0,99,0.00,,-RA,1.02,VWS V14.01,2013-09-02 15:47:00,
2013-09-02 11:48:00,70.6,70.3,29.77,South,176,2.0,3.0,99,0.00,,-RA,1.02,VWS V14.01,2013-09-02 15:48:00,
2013-09-02 11:49:00,70.6,70.3,29.77,SSW,200,1.0,4.0,99,0.00,,-RA,1.02,VWS V14.01,2013-09-02 15:49:00,
2013-09-02 11:50:00,70.6,70.3,29.77,SSW,198,0.0,1.0,99,0.00,,-RA,1.02,VWS V14.01,2013-09-02 15:50:00,
2013-09-02 11:53:00,70.6,70.3,29.77,SE,125,3.0,3.0,99,0.00,,-RA,1.02,VWS V14.01,2013-09-02 15:53:00,
2013-09-02 11:54:00,70.6,70.3,29.77,SE,138,3.0,10.0,99,0.00,,-RA,1.02,VWS V14.01,2013-09-02 15:54:00,
2013-09-02 11:55:00,70.5,70.2,29.77,SE,142,3.0,6.0,99,0.00,,-RA,1.02,VWS V14.01,2013-09-02 15:55:00,
2013-09-02 11:56:00,70.5,70.2,29.77,West,261,1.0,6.0,99,0.00,,-RA,1.02,VWS V14.01,2013-09-02 15:56:00,
2013-09-02 11:58:00,70.5,70.2,29.77,SSE,153,3.0,6.0,99,0.00,,-RA,1.02,VWS V14.01,2013-09-02 15:58:00,
2013-09-02 11:59:00,70.4,69.8,29.77,North,11,2.0,2.0,98,0.00,,-RA,1.02,VWS V14.01,2013-09-02 15:59:00,
2013-09-02 12:00:00,70.4,69.8,29.77,ESE,108,3.0,3.0,98,0.00,,OVC006,1.02,VWS V14.01,2013-09-02 16:00:00,
2013-09-02 12:01:00,70.4,69.8,29.77,SW,219,2.0,4.0,98,0.00,,OVC006,1.02,VWS V14.01,2013-09-02 16:01:00,
2013-09-02 12:03:00,70.3,69.7,29.77,SW,229,1.0,4.0,98,0.00,,OVC006,1.02,VWS V14.01,2013-09-02 16:03:00,
2013-09-02 12:05:00,70.3,70.0,29.77,SE,146,4.0,4.0,99,0.00,,OVC006,1.02,VWS V14.01,2013-09-02 16:05:00,
2013-09-02 12:06:00,70.3,70.0,29.77,SE,139,2.0,4.0,99,0.00,,OVC006,1.02,VWS V14.01,2013-09-02 16:06:00,
2013-09-02 12:07:00,70.3,70.0,29.77,South,186,2.0,4.0,99,0.00,,OVC006,1.02,VWS V14.01,2013-09-02 16:07:00,
2013-09-02 12:08:00,70.2,69.9,29.77,South,188,0.0,4.0,99,0.00,,OVC006,1.02,VWS V14.01,2013-09-02 16:08:00,
2013-09-02 12:10:00,70.3,70.0,29.77,NNE,33,1.0,2.0,99,0.00,,OVC006,1.02,VWS V14.01,2013-09-02 16:10:00,
2013-09-02 12:11:00,70.3,70.0,29.77,NNE,33,0.0,2.0,99,0.00,,OVC006,1.02,VWS V14.01,2013-09-02 16:11:00,
2013-09-02 12:12:00,70.3,70.0,29.77,NE,55,1.0,2.0,99,0.00,,OVC006,1.02,VWS V14.01,2013-09-02 16:12:00,
2013-09-02 12:13:00,70.3,70.0,29.77,NE,56,1.0,2.0,99,0.00,,OVC006,1.02,VWS V14.01,2013-09-02 16:13:00,
2013-09-02 12:14:00,70.3,70.0,29.77,ENE,72,1.0,2.0,99,0.00,,OVC006,1.02,VWS V14.01,2013-09-02 16:14:00,
2013-09-02 12:15:00,70.3,70.0,29.77,East,97,2.0,3.0,99,0.00,,OVC006,1.02,VWS V14.01,2013-09-02 16:15:00,
2013-09-02 12:16:00,70.3,70.0,29.77,East,97,2.0,3.0,99,0.00,,OVC006,1.02,VWS V14.01,2013-09-02 16:16:00,
2013-09-02 12:17:00,70.3,70.0,29.77,ESE,121,3.0,3.0,99,0.00,,OVC006,1.02,VWS V14.01,2013-09-02 16:17:00,
2013-09-02 12:18:00,70.2,69.9,29.77,SE,139,2.0,3.0,99,0.00,,OVC006,1.02,VWS V14.01,2013-09-02 16:18:00,
2013-09-02 12:19:00,70.2,69.9,29.77,SSE,159,0.0,3.0,99,0.00,,OVC006,1.02,VWS V14.01,2013-09-02 16:19:00,
2013-09-02 12:21:00,70.2,69.9,29.77,SSE,161,2.0,2.0,99,0.00,,OVC006,1.02,VWS V14.01,2013-09-02 16:21:00,
2013-09-02 12:22:00,70.2,69.9,29.77,SSE,165,1.0,4.0,99,0.01,,OVC006,1.03,VWS V14.01,2013-09-02 16:22:00,
2013-09-02 12:23:00,70.2,69.9,29.77,SSE,165,1.0,4.0,99,0.03,,OVC006,1.05,VWS V14.01,2013-09-02 16:23:00,
2013-09-02 12:25:00,70.2,69.9,29.76,South,178,2.0,2.0,99,0.06,,OVC006,1.08,VWS V14.01,2013-09-02 16:25:00,
2013-09-02 12:26:00,70.2,69.9,29.76,SW,229,2.0,3.0,99,0.08,,OVC006,1.10,VWS V14.01,2013-09-02 16:26:00,
2013-09-02 12:27:00,70.2,69.9,29.76,SSW,201,1.0,4.0,99,0.10,,OVC006,1.12,VWS V14.01,2013-09-02 16:27:00,
2013-09-02 12:28:00,70.3,70.0,29.76,West,272,1.0,4.0,99,0.11,,OVC006,1.13,VWS V14.01,2013-09-02 16:28:00,
2013-09-02 12:30:00,70.2,69.9,29.76,South,187,1.0,1.0,99,0.15,,OVC006,1.17,VWS V14.01,2013-09-02 16:30:00,
2013-09-02 12:31:00,70.2,69.9,29.76,South,186,1.0,1.0,99,0.18,,OVC006,1.20,VWS V14.01,2013-09-02 16:31:00,
2013-09-02 12:32:00,70.2,69.9,29.76,South,186,0.0,1.0,99,0.22,,OVC006,1.24,VWS V14.01,2013-09-02 16:32:00,
2013-09-02 12:33:00,70.2,69.9,29.76,SE,132,2.0,2.0,99,0.24,,OVC006,1.26,VWS V14.01,2013-09-02 16:33:00,
2013-09-02 12:35:00,70.2,69.9,29.76,ENE,76,0.0,1.0,99,0.25,,OVC006,1.27,VWS V14.01,2013-09-02 16:35:00,
2013-09-02 12:36:00,70.2,69.9,29.76,ENE,76,0.0,1.0,99,0.27,,OVC006,1.29,VWS V14.01,2013-09-02 16:36:00,
2013-09-02 12:37:00,70.2,69.9,29.76,SW,221,2.0,2.0,99,0.29,,OVC006,1.31,VWS V14.01,2013-09-02 16:37:00,
2013-09-02 12:38:00,70.2,69.9,29.76,SSW,213,2.0,3.0,99,0.31,,OVC006,1.33,VWS V14.01,2013-09-02 16:38:00,
2013-09-02 12:39:00,70.2,69.9,29.76,SSW,210,1.0,4.0,99,0.32,,OVC006,1.34,VWS V14.01,2013-09-02 16:39:00,
2013-09-02 12:40:00,70.2,69.9,29.76,SSE,165,0.0,2.0,99,0.37,,OVC006,1.39,VWS V14.01,2013-09-02 16:40:00,
2013-09-02 12:41:00,70.2,69.9,29.76,SSE,165,0.0,2.0,99,0.37,,OVC006,1.39,VWS V14.01,2013-09-02 16:41:00,
2013-09-02 12:42:00,70.2,69.9,29.76,SSE,166,1.0,2.0,99,0.41,,OVC006,1.43,VWS V14.01,2013-09-02 16:42:00,
2013-09-02 12:43:00,70.2,69.9,29.76,SE,136,1.0,2.0,99,0.44,,OVC006,1.46,VWS V14.01,2013-09-02 16:43:00,
2013-09-02 12:44:00,70.2,69.9,29.76,SE,140,2.0,2.0,99,0.44,,OVC006,1.46,VWS V14.01,2013-09-02 16:44:00,
2013-09-02 12:46:00,70.2,69.9,29.76,SSE,151,1.0,4.0,99,0.48,,OVC006,1.50,VWS V14.01,2013-09-02 16:46:00,
2013-09-02 12:47:00,70.2,69.9,29.76,SE,145,1.0,4.0,99,0.50,,OVC006,1.52,VWS V14.01,2013-09-02 16:47:00,
2013-09-02 12:48:00,70.2,69.9,29.76,SE,126,1.0,4.0,99,0.53,,OVC006,1.55,VWS V14.01,2013-09-02 16:48:00,
2013-09-02 12:49:00,70.2,69.9,29.76,NE,41,2.0,4.0,99,0.54,,OVC006,1.56,VWS V14.01,2013-09-02 16:49:00,
2013-09-02 12:51:00,70.2,69.9,29.76,NNE,22,1.0,3.0,99,0.56,,OVC006,1.58,VWS V14.01,2013-09-02 16:51:00,
2013-09-02 12:52:00,70.2,69.9,29.76,NNE,22,1.0,3.0,99,0.57,,OVC006,1.59,VWS V14.01,2013-09-02 16:52:00,
2013-09-02 12:53:00,70.2,69.9,29.76,ENE,61,1.0,3.0,99,0.58,,OVC006,1.60,VWS V14.01,2013-09-02 16:53:00,
2013-09-02 12:54:00,70.2,69.9,29.76,ESE,116,2.0,3.0,99,0.59,,OVC006,1.61,VWS V14.01,2013-09-02 16:54:00,
2013-09-02 12:56:00,70.2,69.9,29.76,ESE,109,0.0,1.0,99,0.64,,OVC006,1.66,VWS V14.01,2013-09-02 16:56:00,
2013-09-02 12:57:00,70.1,69.8,29.76,SSW,194,1.0,2.0,99,0.66,,OVC006,1.68,VWS V14.01,2013-09-02 16:57:00,
2013-09-02 12:58:00,70.1,69.8,29.76,SW,222,0.0,2.0,99,0.75,,OVC006,1.77,VWS V14.01,2013-09-02 16:58:00,
2013-09-02 12:59:00,70.1,69.8,29.76,North,9,2.0,2.0,99,0.79,,OVC006,1.81,VWS V14.01,2013-09-02 16:59:00,
2013-09-02 13:00:00,70.1,69.8,29.76,North,9,0.0,1.0,99,0.81,,RA,1.83,VWS V14.01,2013-09-02 17:00:00,
2013-09-02 13:01:00,70.1,69.8,29.76,ESE,102,3.0,3.0,99,0.92,,RA,1.94,VWS V14.01,2013-09-02 17:01:00,
2013-09-02 13:02:00,70.1,69.8,29.76,ENE,57,3.0,3.0,99,0.97,,RA,1.99,VWS V14.01,2013-09-02 17:02:00,
2013-09-02 13:03:00,70.1,69.8,29.76,NW,318,1.0,3.0,99,0.99,,RA,2.01,VWS V14.01,2013-09-02 17:03:00,
2013-09-02 13:04:00,70.1,69.8,29.76,ENE,59,1.0,3.0,99,1.00,,RA,2.02,VWS V14.01,2013-09-02 17:04:00,
2013-09-02 13:05:00,70.1,69.8,29.76,ENE,59,0.0,1.0,99,1.01,,RA,2.03,VWS V14.01,2013-09-02 17:05:00,
2013-09-02 13:06:00,70.1,69.8,29.76,ENE,59,1.0,1.0,99,1.01,,RA,2.03,VWS V14.01,2013-09-02 17:06:00,
2013-09-02 13:07:00,70.0,69.7,29.76,North,349,2.0,2.0,99,1.01,,RA,2.03,VWS V14.01,2013-09-02 17:07:00,
2013-09-02 13:09:00,70.1,69.8,29.75,NNW,346,1.0,2.0,99,1.01,,RA,2.03,VWS V14.01,2013-09-02 17:09:00,
2013-09-02 13:10:00,70.1,69.8,29.75,NNW,346,0.0,0.0,99,1.01,,RA,2.03,VWS V14.01,2013-09-02 17:10:00,
2013-09-02 13:11:00,70.1,69.8,29.75,NNW,346,0.0,1.0,99,1.01,,RA,2.03,VWS V14.01,2013-09-02 17:11:00,
2013-09-02 13:12:00,70.1,69.8,29.75,NNW,346,0.0,1.0,99,1.01,,RA,2.03,VWS V14.01,2013-09-02 17:12:00,
2013-09-02 13:14:00,70.1,69.8,29.76,NNW,346,0.0,1.0,99,1.02,,RA,2.04,VWS V14.01,2013-09-02 17:14:00,
2013-09-02 13:16:00,70.1,69.8,29.76,WSW,250,1.0,2.0,99,1.02,,RA,2.04,VWS V14.01,2013-09-02 17:16:00,
2013-09-02 13:17:00,70.1,69.8,29.76,WSW,257,1.0,2.0,99,1.02,,RA,2.04,VWS V14.01,2013-09-02 17:17:00,
2013-09-02 13:19:00,70.1,69.8,29.76,SE,144,2.0,2.0,99,1.02,,RA,2.04,VWS V14.01,2013-09-02 17:19:00,
2013-09-02 13:21:00,70.1,69.8,29.76,SSW,194,1.0,2.0,99,1.02,,RA,2.04,VWS V14.01,2013-09-02 17:21:00,
2013-09-02 13:22:00,70.1,69.8,29.76,West,267,1.0,2.0,99,1.02,,RA,2.04,VWS V14.01,2013-09-02 17:22:00,
2013-09-02 13:23:00,70.1,69.8,29.76,WSW,239,2.0,2.0,99,1.02,,RA,2.04,VWS V14.01,2013-09-02 17:23:00,
2013-09-02 13:24:00,70.2,69.9,29.76,WSW,240,0.0,2.0,99,1.02,,RA,2.04,VWS V14.01,2013-09-02 17:24:00,
2013-09-02 13:26:00,70.2,69.9,29.76,SW,234,0.0,1.0,99,0.97,,RA,2.04,VWS V14.01,2013-09-02 17:26:00,
2013-09-02 13:27:00,70.2,69.9,29.76,SW,234,0.0,1.0,99,0.97,,RA,2.04,VWS V14.01,2013-09-02 17:27:00,
2013-09-02 13:28:00,70.2,69.9,29.76,West,278,1.0,2.0,99,0.97,,RA,2.04,VWS V14.01,2013-09-02 17:28:00,
2013-09-02 13:29:00,70.2,69.9,29.76,NNE,27,1.0,3.0,99,0.97,,RA,2.04,VWS V14.01,2013-09-02 17:29:00,
2013-09-02 13:31:00,70.2,69.9,29.76,NNE,23,1.0,2.0,99,0.88,,-RA,2.05,VWS V14.01,2013-09-02 17:31:00,
2013-09-02 13:32:00,70.2,69.9,29.76,NNE,23,0.0,2.0,99,0.88,,-RA,2.05,VWS V14.01,2013-09-02 17:32:00,
2013-09-02 13:33:00,70.2,69.9,29.76,NNE,26,0.0,2.0,99,0.89,,-RA,2.06,VWS V14.01,2013-09-02 17:33:00,
2013-09-02 13:34:00,70.2,69.9,29.75,NNE,26,1.0,2.0,99,0.89,,-RA,2.06,VWS V14.01,2013-09-02 17:34:00,
2013-09-02 13:36:00,70.2,69.9,29.75,ENE,68,0.0,2.0,99,0.79,,-RA,2.06,VWS V14.01,2013-09-02 17:36:00,
2013-09-02 13:37:00,70.3,70.0,29.75,ENE,68,1.0,2.0,99,0.79,,-RA,2.06,VWS V14.01,2013-09-02 17:37:00,
2013-09-02 13:38:00,70.3,70.0,29.76,ESE,115,2.0,2.0,99,0.79,,-RA,2.06,VWS V14.01,2013-09-02 17:38:00,
2013-09-02 13:39:00,70.3,70.0,29.75,SE,126,1.0,2.0,99,0.79,,-RA,2.06,VWS V14.01,2013-09-02 17:39:00,
2013-09-02 13:42:00,70.3,70.0,29.76,South,169,1.0,3.0,99,0.71,,-RA,2.07,VWS V14.01,2013-09-02 17:42:00,
2013-09-02 13:43:00,70.4,70.1,29.75,ESE,119,1.0,3.0,99,0.71,,-RA,2.07,VWS V14.01,2013-09-02 17:43:00,
2013-09-02 13:44:00,70.4,70.1,29.75,ESE,108,0.0,3.0,99,0.71,,-RA,2.07,VWS V14.01,2013-09-02 17:44:00,
2013-09-02 13:47:00,70.4,70.1,29.75,NE,37,0.0,2.0,99,0.60,,-RA,2.07,VWS V14.01,2013-09-02 17:47:00,
2013-09-02 13:48:00,70.4,70.1,29.75,South,177,1.0,2.0,99,0.60,,-RA,2.07,VWS V14.01,2013-09-02 17:48:00,
2013-09-02 13:49:00,70.4,70.1,29.75,South,177,1.0,2.0,99,0.60,,-RA,2.07,VWS V14.01,2013-09-02 17:49:00,
2013-09-02 13:50:00,70.4,70.1,29.75,SSW,208,2.0,2.0,99,0.50,,-RA,2.07,VWS V14.01,2013-09-02 17:50:00,
2013-09-02 13:52:00,70.3,70.0,29.75,SSW,208,2.0,3.0,99,0.52,,-RA,2.09,VWS V14.01,2013-09-02 17:52:00,
2013-09-02 13:53:00,70.2,69.9,29.75,SSW,209,1.0,3.0,99,0.54,,-RA,2.11,VWS V14.01,2013-09-02 17:53:00,
2013-09-02 13:54:00,70.2,69.9,29.75,SSW,209,2.0,3.0,99,0.54,,-RA,2.11,VWS V14.01,2013-09-02 17:54:00,
2013-09-02 13:55:00,70.2,69.9,29.75,SSW,209,1.0,1.0,99,0.49,,-RA,2.13,VWS V14.01,2013-09-02 17:55:00,
2013-09-02 13:57:00,70.2,69.9,29.75,WSW,238,2.0,2.0,99,0.51,,-RA,2.15,VWS V14.01,2013-09-02 17:57:00,
2013-09-02 13:59:00,70.1,69.8,29.75,WSW,241,1.0,2.0,99,0.54,,-RA,2.18,VWS V14.01,2013-09-02 17:59:00,
2013-09-02 14:00:00,70.1,69.8,29.75,WSW,241,0.0,0.0,99,0.37,,-RA,2.20,VWS V14.01,2013-09-02 18:00:00,
2013-09-02 14:01:00,70.1,69.8,29.74,WSW,241,0.0,0.0,99,0.39,,,2.22,VWS V14.01,2013-09-02 18:01:00,
2013-09-02 14:02:00,70.1,69.8,29.74,WSW,241,1.0,1.0,99,0.41,,,2.24,VWS V14.01,2013-09-02 18:02:00,
2013-09-02 14:03:00,70.0,69.7,29.74,WSW,241,1.0,1.0,99,0.41,,,2.24,VWS V14.01,2013-09-02 18:03:00,
2013-09-02 14:04:00,70.0,69.7,29.74,WSW,241,0.0,1.0,99,0.43,,,2.26,VWS V14.01,2013-09-02 18:04:00,
2013-09-02 14:05:00,70.0,69.7,29.74,WSW,241,0.0,1.0,99,0.26,,,2.28,VWS V14.01,2013-09-02 18:05:00,
2013-09-02 14:07:00,69.9,69.3,29.74,WSW,241,0.0,1.0,98,0.29,,,2.31,VWS V14.01,2013-09-02 18:07:00,
2013-09-02 14:08:00,69.8,69.2,29.74,WSW,241,0.0,1.0,98,0.31,,,2.33,VWS V14.01,2013-09-02 18:08:00,
2013-09-02 14:09:00,69.7,69.1,29.74,WSW,241,0.0,1.0,98,0.33,,,2.35,VWS V14.01,2013-09-02 18:09:00,
2013-09-02 14:10:00,69.8,69.2,29.74,WSW,241,0.0,1.0,98,0.32,,,2.35,VWS V14.01,2013-09-02 18:10:00,
2013-09-02 14:12:00,69.7,69.1,29.74,WSW,241,1.0,2.0,98,0.33,,,2.36,VWS V14.01,2013-09-02 18:12:00,
2013-09-02 14:13:00,69.6,69.3,29.74,WSW,241,1.0,2.0,99,0.33,,,2.36,VWS V14.01,2013-09-02 18:13:00,
2013-09-02 14:15:00,69.6,69.3,29.74,WSW,241,1.0,2.0,99,0.33,,,2.37,VWS V14.01,2013-09-02 18:15:00,
2013-09-02 14:17:00,69.6,69.3,29.74,WSW,241,1.0,2.0,99,0.34,,,2.38,VWS V14.01,2013-09-02 18:17:00,
2013-09-02 14:18:00,69.6,69.3,29.74,WSW,241,0.0,2.0,99,0.35,,,2.39,VWS V14.01,2013-09-02 18:18:00,
2013-09-02 14:19:00,69.6,69.3,29.74,WSW,241,2.0,2.0,99,0.36,,,2.40,VWS V14.01,2013-09-02 18:19:00,
2013-09-02 14:20:00,69.6,69.3,29.74,WSW,241,2.0,2.0,99,0.37,,,2.41,VWS V14.01,2013-09-02 18:20:00,
2013-09-02 14:21:00,69.6,69.3,29.74,SW,236,2.0,3.0,99,0.38,,,2.42,VWS V14.01,2013-09-02 18:21:00,
2013-09-02 14:22:00,69.6,69.3,29.74,SW,236,1.0,3.0,99,0.39,,,2.43,VWS V14.01,2013-09-02 18:22:00,
2013-09-02 14:23:00,69.6,69.3,29.74,SW,236,0.0,3.0,99,0.40,,,2.44,VWS V14.01,2013-09-02 18:23:00,
2013-09-02 14:24:00,69.6,69.3,29.74,SW,236,0.0,3.0,99,0.41,,,2.45,VWS V14.01,2013-09-02 18:24:00,
2013-09-02 14:25:00,69.6,69.3,29.74,SW,236,0.0,0.0,99,0.42,,,2.46,VWS V14.01,2013-09-02 18:25:00,
2013-09-02 14:26:00,69.6,69.3,29.74,SW,236,1.0,1.0,99,0.45,,,2.49,VWS V14.01,2013-09-02 18:26:00,
2013-09-02 14:27:00,69.6,69.3,29.74,SW,236,0.0,2.0,99,0.46,,,2.50,VWS V14.01,2013-09-02 18:27:00,
2013-09-02 14:28:00,69.5,69.2,29.74,SW,232,1.0,3.0,99,0.48,,,2.52,VWS V14.01,2013-09-02 18:28:00,
2013-09-02 14:30:00,69.5,69.2,29.74,SW,232,1.0,1.0,99,0.50,,,2.54,VWS V14.01,2013-09-02 18:30:00,
2013-09-02 14:31:00,69.5,69.2,29.73,SE,141,2.0,3.0,99,0.52,,-RA,2.56,VWS V14.01,2013-09-02 18:31:00,
2013-09-02 14:32:00,69.5,69.2,29.73,SE,141,1.0,3.0,99,0.54,,-RA,2.58,VWS V14.01,2013-09-02 18:32:00,
2013-09-02 14:34:00,69.4,69.1,29.74,SSW,209,2.0,3.0,99,0.56,,-RA,2.60,VWS V14.01,2013-09-02 18:34:00,
2013-09-02 14:35:00,69.4,69.1,29.74,SSW,201,1.0,4.0,99,0.54,,-RA,2.60,VWS V14.01,2013-09-02 18:35:00,
2013-09-02 14:36:00,69.4,69.1,29.74,SSW,202,1.0,4.0,99,0.55,,-RA,2.61,VWS V14.01,2013-09-02 18:36:00,
2013-09-02 14:37:00,69.4,69.1,29.73,SSW,202,1.0,4.0,99,0.55,,-RA,2.61,VWS V14.01,2013-09-02 18:37:00,
2013-09-02 14:39:00,69.4,69.1,29.73,WNW,289,1.0,4.0,99,0.56,,-RA,2.62,VWS V14.01,2013-09-02 18:39:00,
2013-09-02 14:40:00,69.4,69.1,29.73,North,9,1.0,2.0,99,0.56,,-RA,2.62,VWS V14.01,2013-09-02 18:40:00,
2013-09-02 14:41:00,69.4,69.1,29.73,North,9,1.0,2.0,99,0.56,,-RA,2.62,VWS V14.01,2013-09-02 18:41:00,
2013-09-02 14:42:00,69.4,69.1,29.73,North,9,0.0,2.0,99,0.56,,-RA,2.62,VWS V14.01,2013-09-02 18:42:00,
2013-09-02 14:45:00,69.4,69.1,29.74,WNW,294,1.0,2.0,99,0.55,,-RA,2.62,VWS V14.01,2013-09-02 18:45:00,
2013-09-02 14:46:00,69.4,69.1,29.74,WNW,293,1.0,2.0,99,0.55,,-RA,2.62,VWS V14.01,2013-09-02 18:46:00,
2013-09-02 14:47:00,69.4,69.1,29.74,West,271,0.0,2.0,99,0.55,,-RA,2.62,VWS V14.01,2013-09-02 18:47:00,
2013-09-02 14:50:00,69.4,69.1,29.74,West,269,1.0,1.0,99,0.55,,-RA,2.62,VWS V14.01,2013-09-02 18:50:00,
2013-09-02 14:51:00,69.4,69.1,29.74,West,269,1.0,2.0,99,0.55,,-RA,2.62,VWS V14.01,2013-09-02 18:51:00,
2013-09-02 14:52:00,69.4,69.1,29.74,West,269,0.0,2.0,99,0.55,,-RA,2.62,VWS V14.01,2013-09-02 18:52:00,
2013-09-02 14:55:00,69.5,69.2,29.74,West,269,0.0,0.0,99,0.50,,-RA,2.63,VWS V14.01,2013-09-02 18:55:00,
2013-09-02 14:56:00,69.4,69.1,29.74,WNW,300,1.0,2.0,99,0.51,,-RA,2.64,VWS V14.01,2013-09-02 18:56:00,
2013-09-02 14:57:00,69.5,69.2,29.74,WNW,300,1.0,2.0,99,0.51,,-RA,2.64,VWS V14.01,2013-09-02 18:57:00,
2013-09-02 14:59:00,69.5,69.2,29.74,NNW,331,2.0,2.0,99,0.53,,-RA,2.66,VWS V14.01,2013-09-02 18:59:00,
2013-09-02 15:01:00,69.5,69.2,29.74,NNW,341,1.0,2.0,99,0.48,,-RA,2.68,VWS V14.01,2013-09-02 19:01:00,
2013-09-02 15:02:00,69.5,69.2,29.74,East,85,2.0,2.0,99,0.49,,-RA,2.69,VWS V14.01,2013-09-02 19:02:00,
2013-09-02 15:04:00,69.5,69.2,29.74,NE,45,1.0,3.0,99,0.50,,-RA,2.70,VWS V14.01,2013-09-02 19:04:00,
2013-09-02 15:06:00,69.6,69.3,29.73,SE,125,1.0,3.0,99,0.43,,-RA,2.70,VWS V14.01,2013-09-02 19:06:00,
2013-09-02 15:07:00,69.6,69.3,29.73,ESE,118,1.0,3.0,99,0.43,,-RA,2.70,VWS V14.01,2013-09-02 19:07:00,
2013-09-02 15:08:00,69.7,69.4,29.73,ESE,118,2.0,3.0,99,0.43,,-RA,2.70,VWS V14.01,2013-09-02 19:08:00,
2013-09-02 15:09:00,69.7,69.4,29.73,SE,126,2.0,3.0,99,0.43,,-RA,2.70,VWS V14.01,2013-09-02 19:09:00,
2013-09-02 15:11:00,69.7,69.4,29.73,NE,45,2.0,2.0,99,0.36,,-RA,2.71,VWS V14.01,2013-09-02 19:11:00,
2013-09-02 15:12:00,69.8,69.5,29.73,NE,39,1.0,2.0,99,0.36,,-RA,2.71,VWS V14.01,2013-09-02 19:12:00,
2013-09-02 15:14:00,69.8,69.5,29.73,NNE,32,0.0,2.0,99,0.36,,-RA,2.71,VWS V14.01,2013-09-02 19:14:00,
2013-09-02 15:16:00,69.8,69.5,29.73,ESE,123,0.0,1.0,99,0.34,,-RA,2.71,VWS V14.01,2013-09-02 19:16:00,
2013-09-02 15:17:00,69.8,69.5,29.73,ESE,123,1.0,1.0,99,0.34,,-RA,2.71,VWS V14.01,2013-09-02 19:17:00,
2013-09-02 15:19:00,69.9,69.6,29.73,ESE,123,0.0,2.0,99,0.34,,-RA,2.71,VWS V14.01,2013-09-02 19:19:00,
2013-09-02 15:21:00,69.9,69.6,29.73,ESE,123,0.0,1.0,99,0.31,,-RA,2.71,VWS V14.01,2013-09-02 19:21:00,
2013-09-02 15:22:00,69.9,69.6,29.73,ESE,123,0.0,1.0,99,0.31,,-RA,2.71,VWS V14.01,2013-09-02 19:22:00,
2013-09-02 15:24:00,70.0,69.7,29.73,ESE,123,0.0,1.0,99,0.31,,-RA,2.71,VWS V14.01,2013-09-02 19:24:00,
2013-09-02 15:25:00,70.0,69.7,29.73,ESE,123,1.0,1.0,99,0.25,,-RA,2.71,VWS V14.01,2013-09-02 19:25:00,
2013-09-02 15:27:00,70.0,69.7,29.73,ESE,123,0.0,1.0,99,0.25,,-RA,2.71,VWS V14.01,2013-09-02 19:27:00,
2013-09-02 15:28:00,70.1,69.8,29.73,ESE,123,0.0,1.0,99,0.25,,-RA,2.71,VWS V14.01,2013-09-02 19:28:00,
2013-09-02 15:30:00,70.1,69.8,29.73,ESE,123,0.0,0.0,99,0.17,,-RA,2.71,VWS V14.01,2013-09-02 19:30:00,
2013-09-02 15:31:00,70.1,69.8,29.73,ESE,123,1.0,1.0,99,0.17,,-RA,2.71,VWS V14.01,2013-09-02 19:31:00,
2013-09-02 15:32:00,70.2,69.9,29.73,ESE,123,0.0,1.0,99,0.17,,-RA,2.71,VWS V14.01,2013-09-02 19:32:00,
2013-09-02 15:33:00,70.2,69.9,29.73,ESE,123,0.0,1.0,99,0.17,,-RA,2.71,VWS V14.01,2013-09-02 19:33:00,
2013-09-02 15:36:00,70.3,70.0,29.72,ESE,123,0.0,1.0,99,0.11,,-RA,2.71,VWS V14.01,2013-09-02 19:36:00,
2013-09-02 15:37:00,70.3,70.0,29.73,East,92,1.0,1.0,99,0.11,,-RA,2.71,VWS V14.01,2013-09-02 19:37:00,
2013-09-02 15:38:00,70.3,70.0,29.72,East,92,0.0,1.0,99,0.11,,-RA,2.71,VWS V14.01,2013-09-02 19:38:00,
2013-09-02 15:41:00,70.4,70.1,29.73,East,84,0.0,1.0,99,0.09,,-RA,2.71,VWS V14.01,2013-09-02 19:41:00,
2013-09-02 15:42:00,70.4,70.1,29.73,East,84,1.0,1.0,99,0.09,,-RA,2.71,VWS V14.01,2013-09-02 19:42:00,
2013-09-02 15:43:00,70.4,70.1,29.73,East,84,1.0,1.0,99,0.09,,-RA,2.71,VWS V14.01,2013-09-02 19:43:00,
2013-09-02 15:47:00,70.5,70.2,29.73,NE,46,1.0,2.0,99,0.09,,-RA,2.71,VWS V14.01,2013-09-02 19:47:00,
2013-09-02 15:48:00,70.5,70.2,29.73,NE,46,1.0,2.0,99,0.09,,-RA,2.71,VWS V14.01,2013-09-02 19:48:00,
2013-09-02 15:49:00,70.6,70.3,29.72,NE,46,1.0,2.0,99,0.09,,-RA,2.71,VWS V14.01,2013-09-02 19:49:00,
2013-09-02 15:52:00,70.8,70.5,29.73,NE,46,0.0,1.0,99,0.09,,-RA,2.71,VWS V14.01,2013-09-02 19:52:00,
2013-09-02 15:53:00,70.8,70.5,29.73,NE,46,0.0,1.0,99,0.09,,-RA,2.71,VWS V14.01,2013-09-02 19:53:00,
2013-09-02 15:54:00,70.8,70.5,29.72,NE,46,1.0,2.0,99,0.09,,-RA,2.71,VWS V14.01,2013-09-02 19:54:00,
2013-09-02 15:58:00,71.0,70.7,29.72,NE,46,1.0,1.0,99,0.08,,-RA,2.71,VWS V14.01,2013-09-02 19:58:00,
2013-09-02 15:59:00,71.1,70.8,29.72,NE,46,1.0,1.0,99,0.08,,-RA,2.71,VWS V14.01,2013-09-02 19:59:00,
2013-09-02 16:03:00,71.3,71.0,29.72,SSW,207,1.0,3.0,99,0.04,,-RA,2.71,VWS V14.01,2013-09-02 20:03:00,
2013-09-02 16:05:00,71.4,71.1,29.72,ESE,119,1.0,2.0,99,0.01,,-RA,2.71,VWS V14.01,2013-09-02 20:05:00,
2013-09-02 16:08:00,71.6,71.3,29.72,ESE,111,1.0,3.0,99,0.01,,-RA,2.71,VWS V14.01,2013-09-02 20:08:00,
2013-09-02 16:09:00,71.7,71.7,29.72,ESE,120,2.0,3.0,100,0.01,,-RA,2.71,VWS V14.01,2013-09-02 20:09:00,
2013-09-02 16:10:00,71.7,71.4,29.72,ESE,121,1.0,1.0,99,0.01,,-RA,2.71,VWS V14.01,2013-09-02 20:10:00,
2013-09-02 16:13:00,71.9,71.6,29.72,South,181,1.0,2.0,99,0.01,,-RA,2.71,VWS V14.01,2013-09-02 20:13:00,
2013-09-02 16:14:00,72.0,71.7,29.72,SSW,192,1.0,2.0,99,0.01,,-RA,2.71,VWS V14.01,2013-09-02 20:14:00,
2013-09-02 16:15:00,72.1,71.8,29.72,SW,219,2.0,3.0,99,0.00,,-RA,2.71,VWS V14.01,2013-09-02 20:15:00,
2013-09-02 16:18:00,72.2,71.9,29.72,SSW,213,1.0,3.0,99,0.00,,-RA,2.71,VWS V14.01,2013-09-02 20:18:00,
2013-09-02 16:19:00,72.2,71.9,29.72,WSW,246,0.0,3.0,99,0.00,,-RA,2.71,VWS V14.01,2013-09-02 20:19:00,
2013-09-02 16:20:00,72.3,72.0,29.72,South,182,2.0,2.0,99,0.00,,-RA,2.71,VWS V14.01,2013-09-02 20:20:00,
2013-09-02 16:23:00,72.4,72.1,29.72,SSE,162,2.0,3.0,99,0.00,,-RA,2.71,VWS V14.01,2013-09-02 20:23:00,
2013-09-02 16:24:00,72.4,72.1,29.72,East,88,2.0,3.0,99,0.00,,-RA,2.71,VWS V14.01,2013-09-02 20:24:00,
2013-09-02 16:25:00,72.4,72.1,29.71,ESE,112,2.0,3.0,99,0.00,,-RA,2.71,VWS V14.01,2013-09-02 20:25:00,
2013-09-02 16:27:00,72.5,72.2,29.71,NE,43,1.0,4.0,99,0.00,,-RA,2.71,VWS V14.01,2013-09-02 20:27:00,
2013-09-02 16:28:00,72.5,72.2,29.71,NNE,28,0.0,4.0,99,0.00,,-RA,2.71,VWS V14.01,2013-09-02 20:28:00,
2013-09-02 16:29:00,72.5,72.2,29.71,SE,134,0.0,4.0,99,0.00,,-RA,2.71,VWS V14.01,2013-09-02 20:29:00,
2013-09-02 16:30:00,72.5,72.2,29.71,SE,134,1.0,1.0,99,0.00,,-RA,2.71,VWS V14.01,2013-09-02 20:30:00,
2013-09-02 16:33:00,72.6,72.3,29.70,SSE,149,1.0,2.0,99,0.00,,-RA,2.71,VWS V14.01,2013-09-02 20:33:00,
2013-09-02 16:34:00,72.7,72.4,29.70,NNE,29,2.0,2.0,99,0.00,,-RA,2.71,VWS V14.01,2013-09-02 20:34:00,
2013-09-02 16:35:00,72.7,72.4,29.70,NNE,26,1.0,2.0,99,0.00,,-RA,2.71,VWS V14.01,2013-09-02 20:35:00,
2013-09-02 16:36:00,72.7,72.4,29.70,NNE,26,1.0,2.0,99,0.00,,-RA,2.71,VWS V14.01,2013-09-02 20:36:00,
2013-09-02 16:38:00,72.7,72.4,29.70,NNE,12,1.0,3.0,99,0.00,,-RA,2.71,VWS V14.01,2013-09-02 20:38:00,
2013-09-02 16:39:00,72.7,72.1,29.70,NNE,15,2.0,3.0,98,0.00,,-RA,2.71,VWS V14.01,2013-09-02 20:39:00,
2013-09-02 16:40:00,72.7,72.1,29.70,NNE,15,1.0,3.0,98,0.00,,-RA,2.71,VWS V14.01,2013-09-02 20:40:00,
2013-09-02 16:41:00,72.7,72.1,29.70,NNE,15,1.0,3.0,98,0.00,,-RA,2.71,VWS V14.01,2013-09-02 20:41:00,
2013-09-02 16:43:00,72.6,71.7,29.70,East,87,0.0,3.0,97,0.00,,-RA,2.71,VWS V14.01,2013-09-02 20:43:00,
2013-09-02 16:44:00,72.6,71.7,29.69,East,97,2.0,2.0,97,0.00,,-RA,2.71,VWS V14.01,2013-09-02 20:44:00,
2013-09-02 16:45:00,72.6,72.0,29.69,East,97,1.0,2.0,98,0.00,,-RA,2.71,VWS V14.01,2013-09-02 20:45:00,
2013-09-02 16:46:00,72.5,71.9,29.69,NNE,29,2.0,2.0,98,0.00,,-RA,2.71,VWS V14.01,2013-09-02 20:46:00,
2013-09-02 16:48:00,72.6,72.0,29.69,NE,40,1.0,2.0,98,0.00,,-RA,2.71,VWS V14.01,2013-09-02 20:48:00,
2013-09-02 16:49:00,72.6,72.0,29.69,NE,40,0.0,2.0,98,0.00,,-RA,2.71,VWS V14.01,2013-09-02 20:49:00,
2013-09-02 16:50:00,72.6,72.0,29.70,NE,40,0.0,0.0,98,0.00,,-RA,2.71,VWS V14.01,2013-09-02 20:50:00,
2013-09-02 16:51:00,72.6,72.0,29.70,North,9,1.0,2.0,98,0.00,,-RA,2.71,VWS V14.01,2013-09-02 20:51:00,
2013-09-02 16:53:00,72.6,72.0,29.70,North,9,2.0,2.0,98,0.00,,-RA,2.71,VWS V14.01,2013-09-02 20:53:00,
2013-09-02 16:54:00,72.6,71.7,29.70,North,9,1.0,2.0,97,0.00,,-RA,2.71,VWS V14.01,2013-09-02 20:54:00,
2013-09-02 16:55:00,72.6,71.7,29.70,NE,56,1.0,1.0,97,0.00,,-RA,2.71,VWS V14.01,2013-09-02 20:55:00,
2013-09-02 16:56:00,72.6,71.7,29.70,NE,56,0.0,1.0,97,0.00,,-RA,2.71,VWS V14.01,2013-09-02 20:56:00,
2013-09-02 16:57:00,72.7,72.1,29.70,NE,55,0.0,1.0,98,0.00,,-RA,2.71,VWS V14.01,2013-09-02 20:57:00,
2013-09-02 16:58:00,72.7,72.1,29.70,NE,56,1.0,1.0,98,0.00,,-RA,2.71,VWS V14.01,2013-09-02 20:58:00,
2013-09-02 16:59:00,72.7,72.1,29.70,NE,56,1.0,2.0,98,0.00,,-RA,2.71,VWS V14.01,2013-09-02 20:59:00,
2013-09-02 17:00:00,72.7,72.1,29.70,NE,56,1.0,1.0,98,0.00,,FEW075,2.71,VWS V14.01,2013-09-02 21:00:00,
2013-09-02 17:01:00,72.8,71.9,29.70,ENE,57,2.0,2.0,97,0.00,,FEW075,2.71,VWS V14.01,2013-09-02 21:01:00,
2013-09-02 17:02:00,72.8,72.2,29.70,ENE,59,1.0,2.0,98,0.00,,FEW075,2.71,VWS V14.01,2013-09-02 21:02:00,
2013-09-02 17:03:00,72.8,72.2,29.70,ENE,59,1.0,2.0,98,0.00,,FEW075,2.71,VWS V14.01,2013-09-02 21:03:00,
2013-09-02 17:04:00,72.8,72.2,29.70,ENE,59,1.0,2.0,98,0.00,,FEW075,2.71,VWS V14.01,2013-09-02 21:04:00,
2013-09-02 17:05:00,72.9,72.3,29.70,ENE,59,1.0,1.0,98,0.00,,FEW075,2.71,VWS V14.01,2013-09-02 21:05:00,
2013-09-02 17:06:00,72.9,72.3,29.71,SSW,200,1.0,2.0,98,0.00,,FEW075,2.71,VWS V14.01,2013-09-02 21:06:00,
2013-09-02 17:07:00,73.0,72.7,29.71,SSE,154,1.0,2.0,99,0.00,,FEW075,2.71,VWS V14.01,2013-09-02 21:07:00,
2013-09-02 17:08:00,73.0,72.4,29.71,SSE,154,0.0,2.0,98,0.00,,FEW075,2.71,VWS V14.01,2013-09-02 21:08:00,
2013-09-02 17:09:00,73.0,72.4,29.71,SSE,155,0.0,2.0,98,0.00,,FEW075,2.71,VWS V14.01,2013-09-02 21:09:00,
2013-09-02 17:10:00,73.0,72.4,29.71,SSE,155,0.0,1.0,98,0.00,,FEW075,2.71,VWS V14.01,2013-09-02 21:10:00,
2013-09-02 17:11:00,73.0,72.4,29.71,SE,145,1.0,3.0,98,0.00,,FEW075,2.71,VWS V14.01,2013-09-02 21:11:00,
2013-09-02 17:13:00,73.0,72.4,29.71,SE,136,1.0,3.0,98,0.00,,FEW075,2.71,VWS V14.01,2013-09-02 21:13:00,
2013-09-02 17:15:00,73.0,72.4,29.71,East,84,2.0,3.0,98,0.00,,FEW075,2.71,VWS V14.01,2013-09-02 21:15:00,
2013-09-02 17:16:00,73.0,72.1,29.71,East,84,0.0,3.0,97,0.00,,FEW075,2.71,VWS V14.01,2013-09-02 21:16:00,
2013-09-02 17:18:00,72.9,72.0,29.71,SSE,153,2.0,4.0,97,0.00,,FEW075,2.71,VWS V14.01,2013-09-02 21:18:00,
2013-09-02 17:20:00,72.9,72.0,29.71,SE,130,1.0,2.0,97,0.00,,FEW075,2.71,VWS V14.01,2013-09-02 21:20:00,
2013-09-02 17:21:00,72.9,72.0,29.71,SE,144,1.0,2.0,97,0.00,,FEW075,2.71,VWS V14.01,2013-09-02 21:21:00,
2013-09-02 17:24:00,72.8,71.9,29.71,SSW,194,1.0,2.0,97,0.00,,FEW075,2.71,VWS V14.01,2013-09-02 21:24:00,
2013-09-02 17:25:00,72.8,71.9,29.71,South,178,2.0,4.0,97,0.00,,FEW075,2.71,VWS V14.01,2013-09-02 21:25:00,
2013-09-02 17:26:00,72.8,71.9,29.71,SSE,153,2.0,4.0,97,0.00,,FEW075,2.71,VWS V14.01,2013-09-02 21:26:00,
2013-09-02 17:29:00,72.7,71.8,29.71,ESE,109,2.0,4.0,97,0.00,,FEW075,2.71,VWS V14.01,2013-09-02 21:29:00,
2013-09-02 17:30:00,72.6,71.7,29.70,NNE,32,1.0,2.0,97,0.00,,BKN015,2.71,VWS V14.01,2013-09-02 21:30:00,
2013-09-02 17:31:00,72.6,71.7,29.70,NNE,32,1.0,2.0,97,0.00,,BKN015,2.71,VWS V14.01,2013-09-02 21:31:00,
2013-09-02 17:32:00,72.6,71.7,29.71,NNE,32,1.0,2.0,97,0.00,,BKN015,2.71,VWS V14.01,2013-09-02 21:32:00,
2013-09-02 17:34:00,72.5,71.3,29.70,East,84,3.0,3.0,96,0.00,,BKN015,2.71,VWS V14.01,2013-09-02 21:34:00,
2013-09-02 17:35:00,72.4,71.2,29.70,South,188,2.0,3.0,96,0.00,,BKN015,2.71,VWS V14.01,2013-09-02 21:35:00,
2013-09-02 17:36:00,72.4,71.2,29.70,South,186,0.0,3.0,96,0.00,,BKN015,2.71,VWS V14.01,2013-09-02 21:36:00,
2013-09-02 17:37:00,72.4,71.5,29.70,SSE,154,1.0,3.0,97,0.00,,BKN015,2.71,VWS V14.01,2013-09-02 21:37:00,
2013-09-02 17:39:00,72.3,71.4,29.70,SE,134,2.0,3.0,97,0.00,,BKN015,2.71,VWS V14.01,2013-09-02 21:39:00,
2013-09-02 17:40:00,72.3,71.4,29.70,ESE,116,0.0,1.0,97,0.00,,BKN015,2.71,VWS V14.01,2013-09-02 21:40:00,
2013-09-02 17:41:00,72.3,71.4,29.70,ESE,118,1.0,3.0,97,0.00,,BKN015,2.71,VWS V14.01,2013-09-02 21:41:00,
2013-09-02 17:42:00,72.2,71.3,29.70,South,190,2.0,3.0,97,0.00,,BKN015,2.71,VWS V14.01,2013-09-02 21:42:00,
2013-09-02 17:43:00,72.2,71.3,29.70,ESE,117,2.0,3.0,97,0.00,,BKN015,2.71,VWS V14.01,2013-09-02 21:43:00,
2013-09-02 17:44:00,72.2,71.0,29.70,SE,129,2.0,3.0,96,0.00,,BKN015,2.71,VWS V14.01,2013-09-02 21:44:00,
2013-09-02 17:46:00,72.1,71.2,29.70,SE,136,1.0,3.0,97,0.00,,BKN015,2.71,VWS V14.01,2013-09-02 21:46:00,
2013-09-02 17:47:00,72.1,71.2,29.70,NE,53,1.0,3.0,97,0.00,,BKN015,2.71,VWS V14.01,2013-09-02 21:47:00,
2013-09-02 17:48:00,72.1,71.2,29.70,NE,55,1.0,3.0,97,0.00,,BKN015,2.71,VWS V14.01,2013-09-02 21:48:00,
2013-09-02 17:49:00,72.0,71.1,29.70,NE,55,0.0,3.0,97,0.00,,BKN015,2.71,VWS V14.01,2013-09-02 21:49:00,
2013-09-02 17:51:00,72.0,70.8,29.70,South,180,2.0,3.0,96,0.00,,BKN015,2.71,VWS V14.01,2013-09-02 21:51:00,
2013-09-02 17:52:00,71.9,70.7,29.70,South,180,0.0,3.0,96,0.00,,BKN015,2.71,VWS V14.01,2013-09-02 21:52:00,
2013-09-02 17:53:00,71.9,71.0,29.70,South,180,0.0,3.0,97,0.00,,BKN015,2.71,VWS V14.01,2013-09-02 21:53:00,
2013-09-02 17:54:00,71.9,71.0,29.70,SSE,153,3.0,3.0,97,0.00,,BKN015,2.71,VWS V14.01,2013-09-02 21:54:00,
2013-09-02 17:56:00,71.8,70.6,29.70,SE,144,1.0,2.0,96,0.00,,BKN015,2.71,VWS V14.01,2013-09-02 21:56:00,
2013-09-02 17:57:00,71.8,70.6,29.70,SE,143,1.0,2.0,96,0.00,,BKN015,2.71,VWS V14.01,2013-09-02 21:57:00,
2013-09-02 17:58:00,71.8,70.9,29.70,East,82,1.0,2.0,97,0.00,,BKN015,2.71,VWS V14.01,2013-09-02 21:58:00,
2013-09-02 17:59:00,71.7,70.8,29.70,East,82,0.0,2.0,97,0.00,,BKN015,2.71,VWS V14.01,2013-09-02 21:59:00,
2013-09-02 18:01:00,71.7,70.8,29.69,East,82,0.0,1.0,97,0.00,,-RA,2.71,VWS V14.01,2013-09-02 22:01:00,
2013-09-02 18:02:00,71.6,70.7,29.69,East,82,0.0,1.0,97,0.00,,-RA,2.71,VWS V14.01,2013-09-02 22:02:00,
2013-09-02 18:04:00,71.6,70.7,29.69,East,82,0.0,1.0,97,0.00,,-RA,2.71,VWS V14.01,2013-09-02 22:04:00,
2013-09-02 18:05:00,71.6,70.7,29.69,East,82,0.0,1.0,97,0.00,,-RA,2.71,VWS V14.01,2013-09-02 22:05:00,
2013-09-02 18:06:00,71.6,70.7,29.69,East,82,2.0,2.0,97,0.00,,-RA,2.71,VWS V14.01,2013-09-02 22:06:00,
2013-09-02 18:07:00,71.5,70.6,29.69,East,82,1.0,2.0,97,0.00,,-RA,2.71,VWS V14.01,2013-09-02 22:07:00,
2013-09-02 18:09:00,71.5,70.6,29.69,NNE,22,1.0,2.0,97,0.00,,-RA,2.71,VWS V14.01,2013-09-02 22:09:00,
2013-09-02 18:11:00,71.4,70.5,29.69,NNE,22,1.0,2.0,97,0.00,,-RA,2.71,VWS V14.01,2013-09-02 22:11:00,
2013-09-02 18:12:00,71.4,70.5,29.69,ENE,72,1.0,2.0,97,0.00,,-RA,2.71,VWS V14.01,2013-09-02 22:12:00,
2013-09-02 18:13:00,71.3,70.4,29.69,ENE,74,1.0,2.0,97,0.00,,-RA,2.71,VWS V14.01,2013-09-02 22:13:00,
2013-09-02 18:14:00,71.3,70.4,29.69,ENE,75,1.0,2.0,97,0.00,,-RA,2.71,VWS V14.01,2013-09-02 22:14:00,
2013-09-02 18:15:00,71.2,70.3,29.69,ENE,75,1.0,1.0,97,0.00,,-RA,2.71,VWS V14.01,2013-09-02 22:15:00,
2013-09-02 18:16:00,71.2,70.3,29.68,ESE,119,2.0,2.0,97,0.00,,-RA,2.71,VWS V14.01,2013-09-02 22:16:00,
2013-09-02 18:17:00,71.2,70.0,29.68,East,84,1.0,3.0,96,0.00,,-RA,2.71,VWS V14.01,2013-09-02 22:17:00,
2013-09-02 18:18:00,71.2,70.0,29.68,East,84,1.0,3.0,96,0.00,,-RA,2.71,VWS V14.01,2013-09-02 22:18:00,
2013-09-02 18:19:00,71.1,70.2,29.68,East,85,1.0,3.0,97,0.00,,-RA,2.71,VWS V14.01,2013-09-02 22:19:00,
2013-09-02 18:20:00,71.1,70.2,29.68,East,85,1.0,1.0,97,0.00,,-RA,2.71,VWS V14.01,2013-09-02 22:20:00,
2013-09-02 18:21:00,71.0,70.1,29.68,SE,144,1.0,2.0,97,0.00,,-RA,2.71,VWS V14.01,2013-09-02 22:21:00,
2013-09-02 18:22:00,71.0,69.8,29.69,ESE,111,1.0,2.0,96,0.00,,-RA,2.71,VWS V14.01,2013-09-02 22:22:00,
2013-09-02 18:23:00,71.0,69.8,29.68,ESE,111,1.0,2.0,96,0.00,,-RA,2.71,VWS V14.01,2013-09-02 22:23:00,
2013-09-02 18:24:00,70.9,70.0,29.69,ESE,111,1.0,2.0,97,0.00,,-RA,2.71,VWS V14.01,2013-09-02 22:24:00,
2013-09-02 18:25:00,70.9,70.0,29.68,SSE,157,1.0,3.0,97,0.00,,-RA,2.71,VWS V14.01,2013-09-02 22:25:00,
2013-09-02 18:26:00,70.9,70.0,29.69,SE,134,1.0,3.0,97,0.00,,-RA,2.71,VWS V14.01,2013-09-02 22:26:00,
2013-09-02 18:27:00,70.9,70.0,29.68,SE,138,1.0,3.0,97,0.00,,-RA,2.71,VWS V14.01,2013-09-02 22:27:00,
2013-09-02 18:29:00,70.8,69.9,29.68,SE,138,1.0,3.0,97,0.00,,-RA,2.71,VWS V14.01,2013-09-02 22:29:00,
2013-09-02 18:30:00,70.8,69.9,29.68,SE,146,1.0,2.0,97,0.00,,BKN035,2.71,VWS V14.01,2013-09-02 22:30:00,
2013-09-02 18:31:00,70.8,69.9,29.68,SE,146,1.0,2.0,97,0.00,,BKN035,2.71,VWS V14.01,2013-09-02 22:31:00,
2013-09-02 18:32:00,70.8,69.9,29.68,SE,146,0.0,2.0,97,0.00,,BKN035,2.71,VWS V14.01,2013-09-02 22:32:00,
2013-09-02 18:33:00,70.7,69.8,29.68,SSE,148,0.0,2.0,97,0.00,,BKN035,2.71,VWS V14.01,2013-09-02 22:33:00,
2013-09-02 18:34:00,70.7,69.5,29.68,SE,128,2.0,3.0,96,0.00,,BKN035,2.71,VWS V14.01,2013-09-02 22:34:00,
2013-09-02 18:35:00,70.7,69.5,29.68,SE,128,2.0,2.0,96,0.00,,BKN035,2.71,VWS V14.01,2013-09-02 22:35:00,
2013-09-02 18:36:00,70.6,69.7,29.68,SE,128,1.0,2.0,97,0.00,,BKN035,2.71,VWS V14.01,2013-09-02 22:36:00,
2013-09-02 18:37:00,70.6,69.4,29.68,WSW,239,1.0,2.0,96,0.00,,BKN035,2.71,VWS V14.01,2013-09-02 22:37:00,
2013-09-02 18:38:00,70.6,69.4,29.68,WSW,240,1.0,2.0,96,0.00,,BKN035,2.71,VWS V14.01,2013-09-02 22:38:00,
2013-09-02 18:39:00,70.5,69.3,29.68,WSW,240,0.0,1.0,96,0.00,,BKN035,2.71,VWS V14.01,2013-09-02 22:39:00,
2013-09-02 18:40:00,70.5,69.3,29.68,WSW,240,0.0,1.0,96,0.00,,BKN035,2.71,VWS V14.01,2013-09-02 22:40:00,
2013-09-02 18:41:00,70.5,69.6,29.69,WSW,240,0.0,1.0,97,0.00,,BKN035,2.71,VWS V14.01,2013-09-02 22:41:00,
2013-09-02 18:42:00,70.5,69.6,29.69,WSW,240,0.0,1.0,97,0.00,,BKN035,2.71,VWS V14.01,2013-09-02 22:42:00,
2013-09-02 18:43:00,70.4,69.5,29.69,WSW,239,0.0,1.0,97,0.00,,BKN035,2.71,VWS V14.01,2013-09-02 22:43:00,
2013-09-02 18:45:00,70.4,69.5,29.69,SW,221,1.0,1.0,97,0.00,,BKN035,2.71,VWS V14.01,2013-09-02 22:45:00,
2013-09-02 18:47:00,70.4,69.5,29.69,SW,220,0.0,1.0,97,0.00,,BKN035,2.71,VWS V14.01,2013-09-02 22:47:00,
2013-09-02 18:48:00,70.3,69.4,29.69,SW,220,0.0,1.0,97,0.00,,BKN035,2.71,VWS V14.01,2013-09-02 22:48:00,
2013-09-02 18:50:00,70.3,69.4,29.68,South,173,2.0,2.0,97,0.00,,BKN035,2.71,VWS V14.01,2013-09-02 22:50:00,
2013-09-02 18:52:00,70.2,69.3,29.68,South,173,1.0,2.0,97,0.00,,BKN035,2.71,VWS V14.01,2013-09-02 22:52:00,
2013-09-02 18:53:00,70.2,69.3,29.68,South,173,1.0,2.0,97,0.00,,BKN035,2.71,VWS V14.01,2013-09-02 22:53:00,
2013-09-02 18:55:00,70.1,69.2,29.69,South,173,0.0,1.0,97,0.00,,BKN035,2.71,VWS V14.01,2013-09-02 22:55:00,
2013-09-02 18:56:00,70.1,69.2,29.69,South,173,0.0,1.0,97,0.00,,BKN035,2.71,VWS V14.01,2013-09-02 22:56:00,
2013-09-02 18:58:00,70.1,69.2,29.69,South,189,1.0,1.0,97,0.00,,BKN035,2.71,VWS V14.01,2013-09-02 22:58:00,
2013-09-02 19:00:00,70.0,69.1,29.69,South,189,0.0,0.0,97,0.00,,BKN095,2.71,VWS V14.01,2013-09-02 23:00:00,
2013-09-02 19:02:00,70.0,69.1,29.69,South,189,1.0,1.0,97,0.00,,BKN095,2.71,VWS V14.01,2013-09-02 23:02:00,
2013-09-02 19:03:00,69.9,69.0,29.69,South,189,1.0,1.0,97,0.00,,BKN095,2.71,VWS V14.01,2013-09-02 23:03:00,
2013-09-02 19:05:00,69.9,69.0,29.69,South,189,1.0,1.0,97,0.00,,BKN095,2.71,VWS V14.01,2013-09-02 23:05:00,
2013-09-02 19:08:00,69.9,69.0,29.69,South,189,0.0,1.0,97,0.00,,BKN095,2.71,VWS V14.01,2013-09-02 23:08:00,
2013-09-02 19:09:00,69.8,68.9,29.69,South,189,0.0,1.0,97,0.00,,BKN095,2.71,VWS V14.01,2013-09-02 23:09:00,
2013-09-02 19:10:00,69.8,68.9,29.69,South,189,0.0,0.0,97,0.00,,BKN095,2.71,VWS V14.01,2013-09-02 23:10:00,
2013-09-02 19:13:00,69.8,69.2,29.69,South,189,0.0,1.0,98,0.00,,BKN095,2.71,VWS V14.01,2013-09-02 23:13:00,
2013-09-02 19:14:00,69.8,69.2,29.69,South,189,0.0,1.0,98,0.00,,BKN095,2.71,VWS V14.01,2013-09-02 23:14:00,
2013-09-02 19:15:00,69.8,69.2,29.69,South,189,0.0,1.0,98,0.00,,BKN095,2.71,VWS V14.01,2013-09-02 23:15:00,
2013-09-02 19:18:00,69.7,69.1,29.69,South,189,0.0,1.0,98,0.00,,BKN095,2.71,VWS V14.01,2013-09-02 23:18:00,
2013-09-02 19:19:00,69.7,69.1,29.70,South,189,0.0,1.0,98,0.00,,BKN095,2.71,VWS V14.01,2013-09-02 23:19:00,
2013-09-02 19:20:00,69.7,69.1,29.70,South,189,1.0,1.0,98,0.00,,BKN095,2.71,VWS V14.01,2013-09-02 23:20:00,
2013-09-02 19:23:00,69.6,69.0,29.70,SSW,201,0.0,1.0,98,0.00,,BKN095,2.71,VWS V14.01,2013-09-02 23:23:00,
2013-09-02 19:24:00,69.6,69.0,29.70,SSW,202,0.0,1.0,98,0.00,,BKN095,2.71,VWS V14.01,2013-09-02 23:24:00,
2013-09-02 19:25:00,69.6,69.0,29.70,SSW,207,0.0,1.0,98,0.00,,BKN095,2.71,VWS V14.01,2013-09-02 23:25:00,
2013-09-02 19:28:00,69.5,68.9,29.70,SSW,210,0.0,1.0,98,0.00,,BKN095,2.71,VWS V14.01,2013-09-02 23:28:00,
2013-09-02 19:29:00,69.5,68.9,29.70,SSW,210,0.0,1.0,98,0.00,,BKN095,2.71,VWS V14.01,2013-09-02 23:29:00,
2013-09-02 19:30:00,69.5,68.9,29.70,SSW,210,0.0,0.0,98,0.00,,BKN095,2.71,VWS V14.01,2013-09-02 23:30:00,
2013-09-02 19:34:00,69.5,68.9,29.70,SSW,210,0.0,0.0,98,0.00,,BKN027,2.71,VWS V14.01,2013-09-02 23:34:00,
2013-09-02 19:35:00,69.5,68.9,29.70,SSW,210,0.0,0.0,98,0.00,,BKN027,2.71,VWS V14.01,2013-09-02 23:35:00,
2013-09-02 19:39:00,69.4,68.8,29.70,SW,227,0.0,1.0,98,0.00,,BKN027,2.71,VWS V14.01,2013-09-02 23:39:00,
2013-09-02 19:40:00,69.4,68.8,29.70,SW,227,1.0,1.0,98,0.00,,BKN027,2.71,VWS V14.01,2013-09-02 23:40:00,
2013-09-02 19:44:00,69.4,68.8,29.70,SW,228,0.0,2.0,98,0.00,,BKN027,2.71,VWS V14.01,2013-09-02 23:44:00,
2013-09-02 19:45:00,69.4,68.8,29.70,SW,228,0.0,1.0,98,0.00,,BKN027,2.71,VWS V14.01,2013-09-02 23:45:00,
2013-09-02 19:49:00,69.3,68.7,29.70,SW,228,0.0,1.0,98,0.00,,BKN027,2.71,VWS V14.01,2013-09-02 23:49:00,
2013-09-02 19:50:00,69.3,68.7,29.70,SW,228,1.0,1.0,98,0.00,,BKN027,2.71,VWS V14.01,2013-09-02 23:50:00,
2013-09-02 19:51:00,69.3,68.7,29.70,SW,228,0.0,1.0,98,0.00,,BKN027,2.71,VWS V14.01,2013-09-02 23:51:00,
2013-09-02 19:54:00,69.3,68.7,29.70,South,184,0.0,1.0,98,0.00,,BKN027,2.71,VWS V14.01,2013-09-02 23:54:00,
2013-09-02 19:55:00,69.3,68.7,29.70,South,184,0.0,0.0,98,0.00,,BKN027,2.71,VWS V14.01,2013-09-02 23:55:00,
2013-09-02 19:56:00,69.3,68.7,29.70,South,184,0.0,0.0,98,0.00,,BKN027,2.71,VWS V14.01,2013-09-02 23:56:00,
2013-09-02 19:59:00,69.3,69.0,29.70,South,179,0.0,1.0,99,0.00,,BKN027,2.71,VWS V14.01,2013-09-02 23:59:00,
2013-09-02 20:00:00,69.3,69.0,29.70,South,188,1.0,1.0,99,0.00,,OVC014,2.71,VWS V14.01,2013-09-03 00:00:00,
2013-09-02 20:01:00,69.3,69.0,29.70,South,189,0.0,1.0,99,0.00,,OVC014,2.71,VWS V14.01,2013-09-03 00:01:00,
2013-09-02 20:05:00,69.3,69.0,29.70,SSW,204,0.0,0.0,99,0.00,,OVC014,2.71,VWS V14.01,2013-09-03 00:05:00,
2013-09-02 20:06:00,69.3,69.0,29.70,SSW,204,0.0,1.0,99,0.00,,OVC014,2.71,VWS V14.01,2013-09-03 00:06:00,
2013-09-02 20:07:00,69.3,69.0,29.70,SSW,202,0.0,1.0,99,0.00,,OVC014,2.71,VWS V14.01,2013-09-03 00:07:00,
2013-09-02 20:10:00,69.3,69.0,29.70,SSW,196,0.0,0.0,99,0.00,,OVC014,2.71,VWS V14.01,2013-09-03 00:10:00,
2013-09-02 20:11:00,69.3,69.0,29.70,SSW,196,0.0,0.0,99,0.00,,OVC014,2.71,VWS V14.01,2013-09-03 00:11:00,
2013-09-02 20:12:00,69.3,69.0,29.70,South,189,0.0,1.0,99,0.00,,OVC014,2.71,VWS V14.01,2013-09-03 00:12:00,
2013-09-02 20:15:00,69.3,69.0,29.70,South,185,0.0,1.0,99,0.00,,OVC014,2.71,VWS V14.01,2013-09-03 00:15:00,
2013-09-02 20:16:00,69.3,69.0,29.70,South,190,1.0,1.0,99,0.00,,OVC014,2.71,VWS V14.01,2013-09-03 00:16:00,
2013-09-02 20:17:00,69.3,69.0,29.70,South,190,0.0,1.0,99,0.00,,OVC014,2.71,VWS V14.01,2013-09-03 00:17:00,
2013-09-02 20:20:00,69.3,69.0,29.70,South,184,1.0,1.0,99,0.00,,OVC014,2.71,VWS V14.01,2013-09-03 00:20:00,
2013-09-02 20:21:00,69.3,69.0,29.70,South,184,1.0,1.0,99,0.00,,OVC014,2.71,VWS V14.01,2013-09-03 00:21:00,
2013-09-02 20:22:00,69.4,69.1,29.70,South,185,0.0,1.0,99,0.00,,OVC014,2.71,VWS V14.01,2013-09-03 00:22:00,
2013-09-02 20:23:00,69.3,69.0,29.70,South,172,2.0,2.0,99,0.00,,OVC014,2.71,VWS V14.01,2013-09-03 00:23:00,
2013-09-02 20:25:00,69.4,69.1,29.69,SE,127,3.0,3.0,99,0.00,,OVC014,2.71,VWS V14.01,2013-09-03 00:25:00,
2013-09-02 20:26:00,69.4,69.1,29.69,SE,127,1.0,3.0,99,0.00,,OVC014,2.71,VWS V14.01,2013-09-03 00:26:00,
2013-09-02 20:27:00,69.4,69.1,29.69,SE,129,0.0,3.0,99,0.00,,OVC014,2.71,VWS V14.01,2013-09-03 00:27:00,
2013-09-02 20:28:00,69.4,69.1,29.69,SE,129,1.0,3.0,99,0.00,,OVC014,2.71,VWS V14.01,2013-09-03 00:28:00,
2013-09-02 20:30:00,69.4,69.1,29.69,SE,130,1.0,2.0,99,0.00,,OVC014,2.71,VWS V14.01,2013-09-03 00:30:00,
2013-09-02 20:31:00,69.4,69.1,29.69,SE,130,0.0,2.0,99,0.00,,OVC014,2.71,VWS V14.01,2013-09-03 00:31:00,
2013-09-02 20:32:00,69.4,69.1,29.69,SSW,208,0.0,3.0,99,0.00,,OVC014,2.71,VWS V14.01,2013-09-03 00:32:00,
2013-09-02 20:33:00,69.4,69.1,29.69,SSW,205,0.0,3.0,99,0.00,,OVC014,2.71,VWS V14.01,2013-09-03 00:33:00,
2013-09-02 20:34:00,69.4,69.1,29.69,South,176,2.0,3.0,99,0.00,,OVC014,2.71,VWS V14.01,2013-09-03 00:34:00,
2013-09-02 20:35:00,69.4,69.1,29.69,South,190,1.0,1.0,99,0.00,,OVC014,2.71,VWS V14.01,2013-09-03 00:35:00,
2013-09-02 20:36:00,69.4,69.1,29.69,SSW,196,1.0,1.0,99,0.00,,OVC014,2.71,VWS V14.01,2013-09-03 00:36:00,
2013-09-02 20:37:00,69.4,69.1,29.69,SSW,197,0.0,1.0,99,0.00,,OVC014,2.71,VWS V14.01,2013-09-03 00:37:00,
2013-09-02 20:38:00,69.4,69.1,29.69,SSW,197,1.0,1.0,99,0.00,,OVC014,2.71,VWS V14.01,2013-09-03 00:38:00,
2013-09-02 20:39:00,69.4,69.1,29.69,SSW,195,0.0,1.0,99,0.00,,OVC014,2.71,VWS V14.01,2013-09-03 00:39:00,
2013-09-02 20:41:00,69.4,69.1,29.69,SSW,194,0.0,1.0,99,0.00,,OVC014,2.71,VWS V14.01,2013-09-03 00:41:00,
2013-09-02 20:43:00,69.4,69.1,29.70,South,190,0.0,1.0,99,0.00,,OVC014,2.71,VWS V14.01,2013-09-03 00:43:00,
2013-09-02 20:44:00,69.4,69.1,29.70,South,190,0.0,1.0,99,0.00,,OVC014,2.71,VWS V14.01,2013-09-03 00:44:00,
2013-09-02 20:46:00,69.4,69.1,29.70,South,191,2.0,2.0,99,0.00,,OVC014,2.71,VWS V14.01,2013-09-03 00:46:00,
2013-09-02 20:49:00,69.4,69.1,29.70,South,184,0.0,2.0,99,0.00,,OVC014,2.71,VWS V14.01,2013-09-03 00:49:00,
2013-09-02 20:51:00,69.4,69.1,29.70,South,173,1.0,1.0,99,0.00,,OVC014,2.71,VWS V14.01,2013-09-03 00:51:00,
2013-09-02 20:52:00,69.5,69.2,29.69,SSE,147,1.0,2.0,99,0.00,,OVC014,2.71,VWS V14.01,2013-09-03 00:52:00,
2013-09-02 20:54:00,69.5,69.2,29.69,SSW,205,2.0,3.0,99,0.00,,OVC014,2.71,VWS V14.01,2013-09-03 00:54:00,
2013-09-02 20:56:00,69.5,69.2,29.70,SSW,198,1.0,1.0,99,0.00,,OVC014,2.71,VWS V14.01,2013-09-03 00:56:00,
2013-09-02 20:57:00,69.5,69.2,29.70,SSW,198,0.0,1.0,99,0.00,,OVC014,2.71,VWS V14.01,2013-09-03 00:57:00,
2013-09-02 20:59:00,69.5,69.2,29.70,South,188,0.0,1.0,99,0.00,,OVC014,2.71,VWS V14.01,2013-09-03 00:59:00,
2013-09-02 21:00:00,69.5,69.2,29.70,South,180,1.0,1.0,99,0.00,,OVC014,2.71,VWS V14.01,2013-09-03 01:00:00,
2013-09-02 21:01:00,69.5,69.2,29.70,South,169,1.0,1.0,99,0.00,,OVC006,2.71,VWS V14.01,2013-09-03 01:01:00,
2013-09-02 21:02:00,69.5,69.2,29.70,SSE,160,1.0,1.0,99,0.00,,OVC006,2.71,VWS V14.01,2013-09-03 01:02:00,
2013-09-02 21:04:00,69.5,69.2,29.70,SE,124,1.0,1.0,99,0.00,,OVC006,2.71,VWS V14.01,2013-09-03 01:04:00,
2013-09-02 21:05:00,69.5,69.2,29.70,SE,124,0.0,0.0,99,0.00,,OVC006,2.71,VWS V14.01,2013-09-03 01:05:00,
2013-09-02 21:06:00,69.5,69.2,29.70,SE,125,0.0,0.0,99,0.00,,OVC006,2.71,VWS V14.01,2013-09-03 01:06:00,
2013-09-02 21:07:00,69.5,69.2,29.71,ESE,123,1.0,1.0,99,0.00,,OVC006,2.71,VWS V14.01,2013-09-03 01:07:00,
2013-09-02 21:10:00,69.5,69.2,29.70,ESE,120,0.0,1.0,99,0.00,,OVC006,2.71,VWS V14.01,2013-09-03 01:10:00,
2013-09-02 21:11:00,69.5,69.2,29.70,ESE,120,0.0,1.0,99,0.00,,OVC006,2.71,VWS V14.01,2013-09-03 01:11:00,
2013-09-02 21:12:00,69.5,69.2,29.70,ESE,120,0.0,1.0,99,0.00,,OVC006,2.71,VWS V14.01,2013-09-03 01:12:00,
2013-09-02 21:15:00,69.5,69.2,29.71,ESE,120,0.0,1.0,99,0.00,,OVC006,2.71,VWS V14.01,2013-09-03 01:15:00,
2013-09-02 21:16:00,69.5,69.2,29.71,ESE,120,0.0,1.0,99,0.00,,OVC006,2.71,VWS V14.01,2013-09-03 01:16:00,
2013-09-02 21:17:00,69.5,69.2,29.71,ESE,120,0.0,1.0,99,0.00,,OVC006,2.71,VWS V14.01,2013-09-03 01:17:00,
2013-09-02 21:19:00,69.5,69.2,29.71,ESE,120,1.0,1.0,99,0.00,,OVC006,2.71,VWS V14.01,2013-09-03 01:19:00,
2013-09-02 21:21:00,69.5,69.2,29.71,ESE,119,0.0,2.0,99,0.00,,OVC006,2.71,VWS V14.01,2013-09-03 01:21:00,
2013-09-02 21:22:00,69.6,69.3,29.71,ESE,119,0.0,2.0,99,0.00,,OVC006,2.71,VWS V14.01,2013-09-03 01:22:00,
2013-09-02 21:24:00,69.6,69.3,29.71,ESE,119,0.0,2.0,99,0.00,,OVC006,2.71,VWS V14.01,2013-09-03 01:24:00,
2013-09-02 21:26:00,69.6,69.3,29.71,ESE,119,0.0,1.0,99,0.00,,OVC006,2.71,VWS V14.01,2013-09-03 01:26:00,
2013-09-02 21:27:00,69.6,69.3,29.71,ESE,119,1.0,2.0,99,0.00,,OVC006,2.71,VWS V14.01,2013-09-03 01:27:00,
2013-09-02 21:29:00,69.5,69.2,29.71,ESE,119,0.0,2.0,99,0.00,,OVC006,2.71,VWS V14.01,2013-09-03 01:29:00,
2013-09-02 21:31:00,69.5,69.2,29.71,NNE,24,1.0,2.0,99,0.00,,OVC006,2.71,VWS V14.01,2013-09-03 01:31:00,
2013-09-02 21:32:00,69.5,69.2,29.71,NNW,338,1.0,2.0,99,0.00,,OVC006,2.71,VWS V14.01,2013-09-03 01:32:00,
2013-09-02 21:33:00,69.5,69.2,29.71,NW,313,1.0,2.0,99,0.00,,OVC006,2.71,VWS V14.01,2013-09-03 01:33:00,
2013-09-02 21:35:00,69.5,69.2,29.71,NW,325,0.0,1.0,99,0.00,,OVC006,2.71,VWS V14.01,2013-09-03 01:35:00,
2013-09-02 21:37:00,69.5,69.2,29.71,North,351,1.0,1.0,99,0.00,,OVC006,2.71,VWS V14.01,2013-09-03 01:37:00,
2013-09-02 21:38:00,69.5,69.2,29.71,North,351,1.0,1.0,99,0.00,,OVC006,2.71,VWS V14.01,2013-09-03 01:38:00,
2013-09-02 21:41:00,69.6,69.3,29.72,NNW,347,1.0,1.0,99,0.00,,OVC006,2.71,VWS V14.01,2013-09-03 01:41:00,
2013-09-02 21:42:00,69.6,69.3,29.71,NNW,346,0.0,1.0,99,0.00,,OVC006,2.71,VWS V14.01,2013-09-03 01:42:00,
2013-09-02 21:43:00,69.6,69.3,29.71,North,9,1.0,1.0,99,0.00,,OVC006,2.71,VWS V14.01,2013-09-03 01:43:00,
2013-09-02 21:46:00,69.5,69.2,29.71,East,96,0.0,2.0,99,0.00,,OVC006,2.71,VWS V14.01,2013-09-03 01:46:00,
2013-09-02 21:47:00,69.5,69.2,29.71,East,96,1.0,2.0,99,0.00,,OVC006,2.71,VWS V14.01,2013-09-03 01:47:00,
2013-09-02 21:49:00,69.5,69.2,29.71,East,95,0.0,2.0,99,0.00,,OVC006,2.71,VWS V14.01,2013-09-03 01:49:00,
2013-09-02 21:52:00,69.5,69.2,29.71,ENE,74,0.0,1.0,99,0.00,,OVC006,2.71,VWS V14.01,2013-09-03 01:52:00,
2013-09-02 21:53:00,69.5,69.2,29.72,East,93,2.0,2.0,99,0.00,,OVC006,2.71,VWS V14.01,2013-09-03 01:53:00,
2013-09-02 21:54:00,69.5,69.2,29.72,East,95,1.0,2.0,99,0.00,,OVC006,2.71,VWS V14.01,2013-09-03 01:54:00,
2013-09-02 21:57:00,69.4,69.1,29.71,ENE,62,0.0,1.0,99,0.00,,OVC006,2.71,VWS V14.01,2013-09-03 01:57:00,
2013-09-02 21:58:00,69.4,69.1,29.71,East,84,2.0,2.0,99,0.00,,OVC006,2.71,VWS V14.01,2013-09-03 01:58:00,
2013-09-02 21:59:00,69.4,69.1,29.71,East,84,1.0,2.0,99,0.00,,OVC006,2.71,VWS V14.01,2013-09-03 01:59:00,
2013-09-02 22:02:00,69.3,69.0,29.71,East,84,0.0,1.0,99,0.00,,OVC006,2.71,VWS V14.01,2013-09-03 02:02:00,
2013-09-02 22:03:00,69.3,69.0,29.71,East,84,0.0,1.0,99,0.00,,OVC006,2.71,VWS V14.01,2013-09-03 02:03:00,
2013-09-02 22:04:00,69.3,69.0,29.71,East,84,0.0,1.0,99,0.00,,OVC006,2.71,VWS V14.01,2013-09-03 02:04:00,
2013-09-02 22:07:00,69.2,68.9,29.72,East,84,1.0,2.0,99,0.00,,OVC006,2.71,VWS V14.01,2013-09-03 02:07:00,
2013-09-02 22:08:00,69.3,69.0,29.72,East,84,0.0,2.0,99,0.00,,OVC006,2.71,VWS V14.01,2013-09-03 02:08:00,
2013-09-02 22:09:00,69.2,68.9,29.72,East,84,1.0,2.0,99,0.00,,OVC006,2.71,VWS V14.01,2013-09-03 02:09:00,
2013-09-02 22:10:00,69.2,68.9,29.72,East,84,1.0,1.0,99,0.00,,OVC006,2.71,VWS V14.01,2013-09-03 02:10:00,
2013-09-02 22:12:00,69.2,68.9,29.71,East,83,0.0,1.0,99,0.00,,OVC006,2.71,VWS V14.01,2013-09-03 02:12:00,
2013-09-02 22:13:00,69.2,68.9,29.71,East,83,0.0,1.0,99,0.00,,OVC006,2.71,VWS V14.01,2013-09-03 02:13:00,
2013-09-02 22:15:00,69.2,68.9,29.71,ENE,74,1.0,1.0,99,0.00,,OVC006,2.71,VWS V14.01,2013-09-03 02:15:00,
2013-09-02 22:16:00,69.2,68.9,29.71,NE,54,0.0,2.0,99,0.00,,OVC006,2.71,VWS V14.01,2013-09-03 02:16:00,
2013-09-02 22:17:00,69.2,68.9,29.71,NE,42,1.0,2.0,99,0.00,,OVC006,2.71,VWS V14.01,2013-09-03 02:17:00,
2013-09-02 22:18:00,69.2,68.9,29.71,NE,42,1.0,2.0,99,0.00,,OVC006,2.71,VWS V14.01,2013-09-03 02:18:00,
2013-09-02 22:19:00,69.2,68.9,29.71,NE,42,1.0,2.0,99,0.00,,OVC006,2.71,VWS V14.01,2013-09-03 02:19:00,
2013-09-02 22:20:00,69.2,68.9,29.71,NE,42,1.0,1.0,99,0.00,,OVC006,2.71,VWS V14.01,2013-09-03 02:20:00,
2013-09-02 22:21:00,69.2,68.9,29.71,NE,42,1.0,1.0,99,0.00,,OVC006,2.71,VWS V14.01,2013-09-03 02:21:00,
2013-09-02 22:22:00,69.1,68.8,29.71,NE,42,0.0,1.0,99,0.00,,OVC006,2.71,VWS V14.01,2013-09-03 02:22:00,
2013-09-02 22:23:00,69.1,68.8,29.71,NE,42,0.0,1.0,99,0.00,,OVC006,2.71,VWS V14.01,2013-09-03 02:23:00,
2013-09-02 22:25:00,69.1,68.8,29.71,NE,42,0.0,0.0,99,0.00,,OVC006,2.71,VWS V14.01,2013-09-03 02:25:00,
2013-09-02 22:26:00,69.1,68.8,29.71,NE,42,0.0,0.0,99,0.00,,OVC006,2.71,VWS V14.01,2013-09-03 02:26:00,
2013-09-02 22:28:00,69.1,68.8,29.71,NE,43,1.0,1.0,99,0.00,,OVC006,2.71,VWS V14.01,2013-09-03 02:28:00,
2013-09-02 22:30:00,69.1,68.8,29.71,ENE,58,0.0,1.0,99,0.00,,OVC006,2.71,VWS V14.01,2013-09-03 02:30:00,
2013-09-02 22:32:00,69.1,68.8,29.71,ENE,59,0.0,1.0,99,0.00,,OVC006,2.71,VWS V14.01,2013-09-03 02:32:00,
2013-09-02 22:33:00,69.1,68.8,29.71,ENE,59,0.0,1.0,99,0.00,,OVC006,2.71,VWS V14.01,2013-09-03 02:33:00,
2013-09-02 22:35:00,69.1,68.8,29.71,ENE,68,0.0,1.0,99,0.00,,OVC006,2.71,VWS V14.01,2013-09-03 02:35:00,
2013-09-02 22:36:00,69.1,68.8,29.71,ENE,68,1.0,1.0,99,0.00,,OVC006,2.71,VWS V14.01,2013-09-03 02:36:00,
2013-09-02 22:37:00,69.1,68.8,29.71,ENE,68,1.0,1.0,99,0.00,,OVC006,2.71,VWS V14.01,2013-09-03 02:37:00,
2013-09-02 22:38:00,69.1,68.8,29.71,ENE,68,0.0,1.0,99,0.00,,OVC006,2.71,VWS V14.01,2013-09-03 02:38:00,
2013-09-02 22:40:00,69.0,68.7,29.71,ENE,67,1.0,1.0,99,0.00,,OVC006,2.71,VWS V14.01,2013-09-03 02:40:00,
2013-09-02 22:41:00,69.1,68.8,29.71,ENE,66,0.0,1.0,99,0.00,,OVC006,2.71,VWS V14.01,2013-09-03 02:41:00,
2013-09-02 22:42:00,69.0,68.7,29.71,ENE,66,1.0,1.0,99,0.00,,OVC006,2.71,VWS V14.01,2013-09-03 02:42:00,
2013-09-02 22:43:00,69.1,68.8,29.71,ENE,66,0.0,1.0,99,0.00,,OVC006,2.71,VWS V14.01,2013-09-03 02:43:00,
2013-09-02 22:46:00,69.0,68.7,29.71,ENE,66,0.0,1.0,99,0.00,,OVC006,2.71,VWS V14.01,2013-09-03 02:46:00,
2013-09-02 22:48:00,69.0,68.7,29.71,ENE,68,0.0,1.0,99,0.00,,OVC006,2.71,VWS V14.01,2013-09-03 02:48:00,
2013-09-02 22:49:00,69.0,68.7,29.71,ENE,68,0.0,1.0,99,0.00,,OVC006,2.71,VWS V14.01,2013-09-03 02:49:00,
2013-09-02 22:52:00,69.0,68.7,29.71,ENE,70,0.0,1.0,99,0.00,,OVC006,2.71,VWS V14.01,2013-09-03 02:52:00,
2013-09-02 22:53:00,69.0,68.7,29.71,ENE,69,1.0,1.0,99,0.00,,OVC006,2.71,VWS V14.01,2013-09-03 02:53:00,
2013-09-02 22:54:00,69.0,68.7,29.71,NE,53,0.0,1.0,99,0.00,,OVC006,2.71,VWS V14.01,2013-09-03 02:54:00,
2013-09-02 22:57:00,69.0,68.7,29.71,NNE,12,0.0,2.0,99,0.00,,OVC006,2.71,VWS V14.01,2013-09-03 02:57:00,
2013-09-02 22:58:00,68.9,68.6,29.71,NNE,12,0.0,2.0,99,0.00,,OVC006,2.71,VWS V14.01,2013-09-03 02:58:00,
2013-09-02 22:59:00,68.9,68.6,29.71,NNE,12,0.0,2.0,99,0.00,,OVC006,2.71,VWS V14.01,2013-09-03 02:59:00,
2013-09-02 23:03:00,68.9,68.6,29.71,NNE,12,1.0,1.0,99,0.00,,OVC006,2.71,VWS V14.01,2013-09-03 03:03:00,
2013-09-02 23:04:00,68.9,68.6,29.71,NNE,12,0.0,1.0,99,0.00,,OVC006,2.71,VWS V14.01,2013-09-03 03:04:00,
2013-09-02 23:08:00,68.9,68.6,29.71,NNE,12,0.0,1.0,99,0.00,,OVC006,2.71,VWS V14.01,2013-09-03 03:08:00,
2013-09-02 23:09:00,68.9,68.6,29.71,NNE,12,1.0,1.0,99,0.00,,OVC006,2.71,VWS V14.01,2013-09-03 03:09:00,
2013-09-02 23:13:00,68.9,68.6,29.71,NE,34,1.0,1.0,99,0.00,,OVC006,2.71,VWS V14.01,2013-09-03 03:13:00,
2013-09-02 23:14:00,68.8,68.5,29.71,NE,52,2.0,2.0,99,0.00,,OVC006,2.71,VWS V14.01,2013-09-03 03:14:00,
2013-09-02 23:18:00,68.8,68.5,29.71,ESE,105,0.0,2.0,99,0.00,,OVC006,2.71,VWS V14.01,2013-09-03 03:18:00,
2013-09-02 23:19:00,68.8,68.5,29.71,ESE,105,0.0,2.0,99,0.00,,OVC006,2.71,VWS V14.01,2013-09-03 03:19:00,
2013-09-02 23:20:00,68.8,68.5,29.71,ENE,74,0.0,1.0,99,0.00,,OVC006,2.71,VWS V14.01,2013-09-03 03:20:00,
2013-09-02 23:24:00,68.8,68.5,29.71,NNE,33,0.0,2.0,99,0.00,,OVC006,2.71,VWS V14.01,2013-09-03 03:24:00,
2013-09-02 23:25:00,68.9,68.6,29.71,NNE,27,0.0,1.0,99,0.00,,OVC006,2.71,VWS V14.01,2013-09-03 03:25:00,
2013-09-02 23:29:00,68.8,68.5,29.71,NW,304,1.0,2.0,99,0.00,,OVC006,2.71,VWS V14.01,2013-09-03 03:29:00,
2013-09-02 23:30:00,68.9,68.6,29.71,WNW,298,1.0,1.0,99,0.00,,OVC006,2.71,VWS V14.01,2013-09-03 03:30:00,
2013-09-02 23:34:00,68.8,68.5,29.72,WSW,249,0.0,3.0,99,0.00,,OVC006,2.71,VWS V14.01,2013-09-03 03:34:00,
2013-09-02 23:35:00,68.8,68.5,29.72,WSW,249,1.0,3.0,99,0.00,,OVC006,2.71,VWS V14.01,2013-09-03 03:35:00,
2013-09-02 23:39:00,68.8,68.5,29.72,WSW,254,2.0,3.0,99,0.00,,OVC006,2.71,VWS V14.01,2013-09-03 03:39:00,
2013-09-02 23:40:00,68.8,68.5,29.72,ESE,105,3.0,3.0,99,0.00,,OVC006,2.71,VWS V14.01,2013-09-03 03:40:00,
2013-09-02 23:44:00,68.4,68.1,29.72,NNW,339,1.0,6.0,99,0.00,,OVC006,2.71,VWS V14.01,2013-09-03 03:44:00,
2013-09-02 23:45:00,68.4,67.8,29.71,East,84,1.0,2.0,98,0.00,,OVC006,2.71,VWS V14.01,2013-09-03 03:45:00,
2013-09-02 23:46:00,68.3,67.7,29.71,East,86,0.0,2.0,98,0.00,,OVC006,2.71,VWS V14.01,2013-09-03 03:46:00,
2013-09-02 23:49:00,68.1,67.2,29.71,NE,56,1.0,2.0,97,0.00,,OVC006,2.71,VWS V14.01,2013-09-03 03:49:00,
2013-09-02 23:50:00,68.1,67.2,29.72,WSW,248,1.0,2.0,97,0.00,,OVC006,2.71,VWS V14.01,2013-09-03 03:50:00,
2013-09-02 23:51:00,68.0,67.1,29.71,WSW,248,2.0,2.0,97,0.00,,OVC006,2.71,VWS V14.01,2013-09-03 03:51:00,
2013-09-02 23:54:00,67.8,66.9,29.71,WSW,248,0.0,2.0,97,0.00,,OVC006,2.71,VWS V14.01,2013-09-03 03:54:00,
2013-09-02 23:55:00,67.7,66.8,29.71,WSW,248,0.0,1.0,97,0.00,,OVC006,2.71,VWS V14.01,2013-09-03 03:55:00,
2013-09-02 23:56:00,67.7,66.8,29.71,WSW,248,0.0,1.0,97,0.00,,OVC006,2.71,VWS V14.01,2013-09-03 03:56:00,
2013-09-02 23:57:00,67.6,66.7,29.71,WSW,248,1.0,1.0,97,0.00,,OVC006,2.71,VWS V14.01,2013-09-03 03:57:00,
2013-09-02 23:59:00,67.5,66.9,29.71,WSW,248,0.0,1.0,98,0.00,,OVC006,2.71,VWS V14.01,2013-09-03 03:59:00,